Observation data for Colorado City on 05/26/2019      Previous  Date  Next       Current Mesonet Observations  Soil Data  Daily Summary Page  Observations in Plain Language
KCO2 260500Z 17016G21KT 25/19 A2991 RMK A01 T02460185  RH  069%=      5-min Rain = 0
KCO2 260501Z 17017KT 25/18 A2991 RMK A01 T02460184  RH  069%=      5-min Rain = 0
KCO2 260502Z 17018KT 25/18 A2992 RMK A01 T02460184  RH  069%=      5-min Rain = 0
KCO2 260503Z 16016KT 25/19 A2991 RMK A01 T02460185  RH  069%=      5-min Rain = 0
KCO2 260504Z 16015G24KT 25/18 A2992 RMK A01 T02460184  RH  069%=      5-min Rain = 0
KCO2 260505Z 17017KT 25/19 A2992 RMK A01 T02450185  RH  069%=      5-min Rain = 0
KCO2 260506Z 17016KT 25/18 A2992 RMK A01 T02450184  RH  069%=      5-min Rain = 0
KCO2 260507Z 16016KT 25/18 A2992 RMK A01 T02450184  RH  069%=      5-min Rain = 0
KCO2 260508Z 17016KT 25/18 A2992 RMK A01 T02450184  RH  069%=      5-min Rain = 0
KCO2 260509Z 17016G21KT 24/18 A2992 RMK A01 T02440184  RH  069%=      5-min Rain = 0
KCO2 260510Z 16014KT 24/18 A2992 RMK A01 T02440184  RH  069%=      5-min Rain = 0
KCO2 260511Z 16012KT 24/19 A2992 RMK A01 T02440185  RH  070%=      5-min Rain = 0
KCO2 260512Z 16016KT 24/18 A2992 RMK A01 T02430184  RH  070%=      5-min Rain = 0
KCO2 260513Z 17017KT 24/18 A2992 RMK A01 T02420184  RH  070%=      5-min Rain = 0
KCO2 260514Z 17015KT 24/18 A2992 RMK A01 T02420184  RH  070%=      5-min Rain = 0
KCO2 260515Z 17015G20KT 24/18 A2992 RMK A01 T02420184  RH  070%=      5-min Rain = 0
KCO2 260516Z 16017KT 24/18 A2992 RMK A01 T02420184  RH  070%=      5-min Rain = 0
KCO2 260517Z 17018KT 24/18 A2992 RMK A01 T02420184  RH  070%=      5-min Rain = 0
KCO2 260518Z 17016G21KT 24/18 A2992 RMK A01 T02420183  RH  070%=      5-min Rain = 0
KCO2 260519Z 16016KT 24/18 A2992 RMK A01 T02430183  RH  070%=      5-min Rain = 0
KCO2 260520Z 16018KT 24/18 A2992 RMK A01 T02430184  RH  069%=      5-min Rain = 0
KCO2 260521Z 16019KT 24/18 A2992 RMK A01 T02440184  RH  069%=      5-min Rain = 0
KCO2 260522Z 16015G20KT 25/18 A2993 RMK A01 T02450184  RH  069%=      5-min Rain = 0
KCO2 260523Z 16016G21KT 25/18 A2993 RMK A01 T02450184  RH  069%=      5-min Rain = 0
KCO2 260524Z 16017G22KT 25/18 A2993 RMK A01 T02450184  RH  069%=      5-min Rain = 0
KCO2 260525Z 16017G22KT 25/18 A2993 RMK A01 T02450184  RH  069%=      5-min Rain = 0
KCO2 260526Z 16015KT 25/18 A2993 RMK A01 T02450184  RH  069%=      5-min Rain = 0
KCO2 260527Z 16015KT 24/18 A2993 RMK A01 T02440184  RH  069%=      5-min Rain = 0
KCO2 260528Z 16015KT 24/18 A2993 RMK A01 T02440184  RH  069%=      5-min Rain = 0
KCO2 260529Z 16014KT 24/18 A2993 RMK A01 T02440184  RH  070%=      5-min Rain = 0
KCO2 260530Z 16012KT 24/18 A2993 RMK A01 T02430184  RH  070%=      5-min Rain = 0
KCO2 260531Z 16014KT 24/19 A2993 RMK A01 T02430185  RH  070%=      5-min Rain = 0
KCO2 260532Z 16013KT 24/19 A2993 RMK A01 T02430185  RH  070%=      5-min Rain = 0
KCO2 260533Z 16013KT 24/18 A2993 RMK A01 T02430184  RH  070%=      5-min Rain = 0
KCO2 260534Z 16012G17KT 24/19 A2993 RMK A01 T02430185  RH  070%=      5-min Rain = 0
KCO2 260535Z 16013KT 24/19 A2993 RMK A01 T02420185  RH  070%=      5-min Rain = 0
KCO2 260536Z 16012KT 24/18 A2993 RMK A01 T02420184  RH  070%=      5-min Rain = 0
KCO2 260537Z 16013KT 24/19 A2993 RMK A01 T02410185  RH  071%=      5-min Rain = 0
KCO2 260538Z 16012KT 24/19 A2994 RMK A01 T02410185  RH  071%=      5-min Rain = 0
KCO2 260539Z 16011KT 24/18 A2994 RMK A01 T02410184  RH  071%=      5-min Rain = 0
KCO2 260540Z 16016KT 24/19 A2994 RMK A01 T02410185  RH  071%=      5-min Rain = 0
KCO2 260541Z 16013KT 24/19 A2994 RMK A01 T02410185  RH  071%=      5-min Rain = 0
KCO2 260542Z 16016KT 24/19 A2994 RMK A01 T02410185  RH  071%=      5-min Rain = 0
KCO2 260543Z 16012KT 24/19 A2994 RMK A01 T02420185  RH  070%=      5-min Rain = 0
KCO2 260544Z 16015KT 24/19 A2994 RMK A01 T02420185  RH  070%=      5-min Rain = 0
KCO2 260545Z 16012KT 24/19 A2994 RMK A01 T02420185  RH  070%=      5-min Rain = 0
KCO2 260546Z 16011KT 24/19 A2994 RMK A01 T02420185  RH  071%=      5-min Rain = 0
KCO2 260547Z 16012KT 24/19 A2994 RMK A01 T02410185  RH  071%=      5-min Rain = 0
KCO2 260548Z 16010KT 24/19 A2994 RMK A01 T02410185  RH  071%=      5-min Rain = 0
KCO2 260549Z 16012KT 24/19 A2994 RMK A01 T02410185  RH  071%=      5-min Rain = 0
KCO2 260550Z 16009KT 24/19 A2994 RMK A01 T02400185  RH  071%=      5-min Rain = 0
KCO2 260551Z 16009KT 24/19 A2994 RMK A01 T02400185  RH  071%=      5-min Rain = 0
KCO2 260552Z 16012KT 24/19 A2994 RMK A01 T02390185  RH  072%=      5-min Rain = 0
KCO2 260553Z 16013KT 24/19 A2994 RMK A01 T02390185  RH  072%=      5-min Rain = 0
KCO2 260554Z 16010G15KT 24/19 A2994 RMK A01 T02390185  RH  072%=      5-min Rain = 0
KCO2 260555Z 16012KT 24/19 A2994 RMK A01 T02390185  RH  071%=      5-min Rain = 0
KCO2 260556Z 16011KT 24/19 A2994 RMK A01 T02390185  RH  072%=      5-min Rain = 0
KCO2 260557Z 16012KT 24/19 A2994 RMK A01 T02390185  RH  072%=      5-min Rain = 0
KCO2 260558Z 16013KT 24/19 A2994 RMK A01 T02390185  RH  072%=      5-min Rain = 0
KCO2 260559Z 15011KT 24/19 A2994 RMK A01 T02390185  RH  072%=      5-min Rain = 0
KCO2 260600Z 16010KT 24/19 A2994 RMK A01 T02380185  RH  072%=      5-min Rain = 0
KCO2 260601Z 16008KT 24/19 A2994 RMK A01 T02380185  RH  072%=      5-min Rain = 0
KCO2 260602Z 16011KT 24/19 A2994 RMK A01 T02370185  RH  073%=      5-min Rain = 0
KCO2 260603Z 15008KT 24/19 A2994 RMK A01 T02370185  RH  073%=      5-min Rain = 0
KCO2 260604Z 16008KT 24/19 A2994 RMK A01 T02360185  RH  073%=      5-min Rain = 0
KCO2 260605Z 16009KT 24/19 A2994 RMK A01 T02350185  RH  073%=      5-min Rain = 0
KCO2 260606Z 16010KT 24/19 A2994 RMK A01 T02350185  RH  074%=      5-min Rain = 0
KCO2 260607Z 16009KT 24/19 A2994 RMK A01 T02350186  RH  074%=      5-min Rain = 0
KCO2 260608Z 15011KT 24/19 A2994 RMK A01 T02350186  RH  074%=      5-min Rain = 0
KCO2 260609Z 16011KT 24/19 A2994 RMK A01 T02360186  RH  074%=      5-min Rain = 0
KCO2 260610Z 16012KT 24/19 A2994 RMK A01 T02360186  RH  074%=      5-min Rain = 0
KCO2 260611Z 16010KT 24/19 A2994 RMK A01 T02350186  RH  074%=      5-min Rain = 0
KCO2 260612Z 16010KT 24/19 A2994 RMK A01 T02350186  RH  074%=      5-min Rain = 0
KCO2 260613Z 16009KT 24/19 A2994 RMK A01 T02350187  RH  074%=      5-min Rain = 0
KCO2 260614Z 15012KT 24/19 A2994 RMK A01 T02350186  RH  074%=      5-min Rain = 0
KCO2 260615Z 16009KT 24/19 A2994 RMK A01 T02350186  RH  074%=      5-min Rain = 0
KCO2 260616Z 16011KT 24/19 A2995 RMK A01 T02350187  RH  074%=      5-min Rain = 0
KCO2 260617Z 16011KT 24/19 A2995 RMK A01 T02350187  RH  074%=      5-min Rain = 0
KCO2 260618Z 16007KT 24/19 A2995 RMK A01 T02350187  RH  074%=      5-min Rain = 0
KCO2 260619Z 16009KT 23/19 A2995 RMK A01 T02340187  RH  075%=      5-min Rain = 0
KCO2 260620Z 15009KT 23/19 A2995 RMK A01 T02330187  RH  075%=      5-min Rain = 0
KCO2 260621Z 16008KT 23/19 A2995 RMK A01 T02340188  RH  075%=      5-min Rain = 0
KCO2 260622Z 15007KT 23/19 A2995 RMK A01 T02330187  RH  075%=      5-min Rain = 0
KCO2 260623Z 16009KT 23/19 A2995 RMK A01 T02320187  RH  076%=      5-min Rain = 0
KCO2 260624Z 16011G16KT 23/19 A2995 RMK A01 T02320188  RH  076%=      5-min Rain = 0
KCO2 260625Z 16013KT 23/19 A2995 RMK A01 T02320188  RH  076%=      5-min Rain = 0
KCO2 260626Z 16011KT 23/19 A2995 RMK A01 T02330188  RH  076%=      5-min Rain = 0
KCO2 260627Z 16009KT 23/19 A2995 RMK A01 T02340188  RH  075%=      5-min Rain = 0
KCO2 260628Z 15010KT 23/19 A2995 RMK A01 T02340188  RH  076%=      5-min Rain = 0
KCO2 260629Z 16009KT 23/19 A2995 RMK A01 T02340188  RH  076%=      5-min Rain = 0
KCO2 260630Z 15007KT 23/19 A2995 RMK A01 T02330188  RH  076%=      5-min Rain = 0
KCO2 260631Z 16010KT 23/19 A2995 RMK A01 T02320188  RH  076%=      5-min Rain = 0
KCO2 260632Z 15009KT 23/19 A2995 RMK A01 T02320188  RH  077%=      5-min Rain = 0
KCO2 260633Z 15009KT 23/19 A2995 RMK A01 T02320188  RH  077%=      5-min Rain = 0
KCO2 260634Z 15009KT 23/19 A2995 RMK A01 T02310188  RH  077%=      5-min Rain = 0
KCO2 260635Z 15009KT 23/19 A2995 RMK A01 T02310188  RH  077%=      5-min Rain = 0
KCO2 260636Z 16011KT 23/19 A2994 RMK A01 T02310189  RH  077%=      5-min Rain = 0
KCO2 260637Z 15009KT 23/19 A2995 RMK A01 T02300188  RH  077%=      5-min Rain = 0
KCO2 260638Z 15010KT 23/19 A2995 RMK A01 T02300188  RH  077%=      5-min Rain = 0
KCO2 260639Z 16010KT 23/19 A2995 RMK A01 T02300188  RH  077%=      5-min Rain = 0
KCO2 260640Z 16009KT 23/19 A2995 RMK A01 T02300188  RH  077%=      5-min Rain = 0
KCO2 260641Z 16008KT 23/19 A2995 RMK A01 T02300188  RH  077%=      5-min Rain = 0
KCO2 260642Z 15010KT 23/19 A2995 RMK A01 T02300188  RH  077%=      5-min Rain = 0
KCO2 260643Z 15011KT 23/19 A2995 RMK A01 T02300188  RH  078%=      5-min Rain = 0
KCO2 260644Z 16010KT 23/19 A2995 RMK A01 T02300189  RH  078%=      5-min Rain = 0
KCO2 260645Z 15009KT 23/19 A2994 RMK A01 T02300188  RH  078%=      5-min Rain = 0
KCO2 260646Z 16009KT 23/19 A2994 RMK A01 T02300189  RH  078%=      5-min Rain = 0
KCO2 260647Z 15010KT 23/19 A2994 RMK A01 T02290189  RH  078%=      5-min Rain = 0
KCO2 260648Z 16010KT 23/19 A2994 RMK A01 T02290189  RH  078%=      5-min Rain = 0
KCO2 260649Z 16012KT 23/19 A2994 RMK A01 T02290189  RH  078%=      5-min Rain = 0
KCO2 260650Z 15012KT 23/19 A2994 RMK A01 T02290188  RH  078%=      5-min Rain = 0
KCO2 260651Z 16012KT 23/19 A2994 RMK A01 T02290189  RH  078%=      5-min Rain = 0
KCO2 260652Z 15012KT 23/19 A2994 RMK A01 T02290189  RH  078%=      5-min Rain = 0
KCO2 260653Z 16013KT 23/19 A2994 RMK A01 T02290189  RH  078%=      5-min Rain = 0
KCO2 260654Z 16011KT 23/19 A2994 RMK A01 T02290189  RH  078%=      5-min Rain = 0
KCO2 260655Z 15009KT 23/19 A2994 RMK A01 T02290189  RH  078%=      5-min Rain = 0
KCO2 260656Z 16009KT 23/19 A2994 RMK A01 T02280189  RH  078%=      5-min Rain = 0
KCO2 260657Z 16009KT 23/19 A2994 RMK A01 T02280189  RH  079%=      5-min Rain = 0
KCO2 260658Z 16011KT 23/19 A2994 RMK A01 T02280189  RH  079%=      5-min Rain = 0
KCO2 260659Z 16010KT 23/19 A2994 RMK A01 T02280189  RH  079%=      5-min Rain = 0
KCO2 260700Z 16011KT 23/19 A2994 RMK A01 T02270189  RH  079%=      5-min Rain = 0
KCO2 260701Z 16011KT 23/19 A2994 RMK A01 T02270189  RH  079%=      5-min Rain = 0
KCO2 260702Z 16011KT 23/19 A2994 RMK A01 T02270189  RH  079%=      5-min Rain = 0
KCO2 260703Z 16012KT 23/19 A2994 RMK A01 T02270189  RH  079%=      5-min Rain = 0
KCO2 260704Z 17013KT 23/19 A2994 RMK A01 T02270189  RH  079%=      5-min Rain = 0
KCO2 260705Z 15011KT 23/19 A2994 RMK A01 T02280189  RH  079%=      5-min Rain = 0
KCO2 260706Z 16013KT 23/19 A2994 RMK A01 T02280190  RH  079%=      5-min Rain = 0
KCO2 260707Z 16012KT 23/19 A2994 RMK A01 T02280190  RH  079%=      5-min Rain = 0
KCO2 260708Z 16012KT 23/19 A2994 RMK A01 T02280190  RH  079%=      5-min Rain = 0
KCO2 260709Z 16010KT 23/19 A2994 RMK A01 T02280190  RH  079%=      5-min Rain = 0
KCO2 260710Z 16013KT 23/19 A2994 RMK A01 T02270190  RH  079%=      5-min Rain = 0
KCO2 260711Z 15012KT 23/19 A2993 RMK A01 T02270190  RH  079%=      5-min Rain = 0
KCO2 260712Z 16013KT 23/19 A2993 RMK A01 T02270190  RH  080%=      5-min Rain = 0
KCO2 260713Z 16011KT 23/19 A2993 RMK A01 T02270190  RH  080%=      5-min Rain = 0
KCO2 260714Z 16014KT 23/19 A2993 RMK A01 T02270190  RH  080%=      5-min Rain = 0
KCO2 260715Z 16012KT 23/19 A2993 RMK A01 T02270190  RH  080%=      5-min Rain = 0
KCO2 260716Z 16011KT 23/19 A2993 RMK A01 T02270190  RH  080%=      5-min Rain = 0
KCO2 260717Z 16009KT 23/19 A2993 RMK A01 T02270190  RH  080%=      5-min Rain = 0
KCO2 260718Z 16011KT 23/19 A2993 RMK A01 T02260190  RH  080%=      5-min Rain = 0
KCO2 260719Z 16011KT 23/19 A2993 RMK A01 T02260190  RH  080%=      5-min Rain = 0
KCO2 260720Z 16011KT 23/19 A2993 RMK A01 T02260190  RH  080%=      5-min Rain = 0
KCO2 260721Z 15012KT 23/19 A2993 RMK A01 T02250190  RH  080%=      5-min Rain = 0
KCO2 260722Z 16009KT 23/19 A2993 RMK A01 T02250190  RH  080%=      5-min Rain = 0
KCO2 260723Z 16011KT 23/19 A2993 RMK A01 T02250190  RH  081%=      5-min Rain = 0
KCO2 260724Z 15010KT 23/19 A2993 RMK A01 T02250191  RH  081%=      5-min Rain = 0
KCO2 260725Z 16010KT 22/19 A2993 RMK A01 T02240190  RH  081%=      5-min Rain = 0
KCO2 260726Z 16013KT 22/19 A2993 RMK A01 T02240190  RH  081%=      5-min Rain = 0
KCO2 260727Z 15012KT 22/19 A2993 RMK A01 T02240190  RH  081%=      5-min Rain = 0
KCO2 260728Z 15009KT 22/19 A2993 RMK A01 T02240191  RH  081%=      5-min Rain = 0
KCO2 260729Z 16012KT 23/19 A2993 RMK A01 T02250191  RH  081%=      5-min Rain = 0
KCO2 260730Z 16010KT 23/19 A2994 RMK A01 T02250191  RH  081%=      5-min Rain = 0
KCO2 260731Z 16013KT 23/19 A2994 RMK A01 T02250191  RH  081%=      5-min Rain = 0
KCO2 260732Z 15010KT 22/19 A2993 RMK A01 T02240191  RH  081%=      5-min Rain = 0
KCO2 260733Z 16011KT 22/19 A2993 RMK A01 T02240191  RH  082%=      5-min Rain = 0
KCO2 260734Z 15010KT 22/19 A2993 RMK A01 T02240191  RH  082%=      5-min Rain = 0
KCO2 260735Z 16009KT 22/19 A2993 RMK A01 T02240191  RH  082%=      5-min Rain = 0
KCO2 260736Z 16011KT 22/19 A2993 RMK A01 T02240191  RH  082%=      5-min Rain = 0
KCO2 260737Z 16011KT 22/19 A2993 RMK A01 T02230191  RH  082%=      5-min Rain = 0
KCO2 260738Z 16012KT 22/19 A2993 RMK A01 T02230191  RH  082%=      5-min Rain = 0
KCO2 260739Z 16012KT 22/19 A2993 RMK A01 T02230191  RH  082%=      5-min Rain = 0
KCO2 260740Z 15013KT 22/19 A2993 RMK A01 T02240191  RH  082%=      5-min Rain = 0
KCO2 260741Z 16012G17KT 22/19 A2993 RMK A01 T02240191  RH  082%=      5-min Rain = 0
KCO2 260742Z 15009KT 22/19 A2993 RMK A01 T02240191  RH  082%=      5-min Rain = 0
KCO2 260743Z 16009KT 22/19 A2993 RMK A01 T02230191  RH  082%=      5-min Rain = 0
KCO2 260744Z 15008KT 22/19 A2993 RMK A01 T02230191  RH  082%=      5-min Rain = 0
KCO2 260745Z 15011KT 22/19 A2993 RMK A01 T02220191  RH  083%=      5-min Rain = 0
KCO2 260746Z 15010KT 22/19 A2993 RMK A01 T02220191  RH  083%=      5-min Rain = 0
KCO2 260747Z 16010KT 22/19 A2993 RMK A01 T02220191  RH  083%=      5-min Rain = 0
KCO2 260748Z 16012KT 22/19 A2993 RMK A01 T02210191  RH  083%=      5-min Rain = 0
KCO2 260749Z 16011KT 22/19 A2993 RMK A01 T02220191  RH  083%=      5-min Rain = 0
KCO2 260750Z 15011KT 22/19 A2993 RMK A01 T02220191  RH  083%=      5-min Rain = 0
KCO2 260751Z 16009KT 22/19 A2993 RMK A01 T02220191  RH  083%=      5-min Rain = 0
KCO2 260752Z 15012KT 22/19 A2993 RMK A01 T02220191  RH  083%=      5-min Rain = 0
KCO2 260753Z 15011KT 22/19 A2993 RMK A01 T02220191  RH  083%=      5-min Rain = 0
KCO2 260754Z 15012KT 22/19 A2993 RMK A01 T02220191  RH  083%=      5-min Rain = 0
KCO2 260755Z 15011KT 22/19 A2993 RMK A01 T02220192  RH  083%=      5-min Rain = 0
KCO2 260756Z 15012KT 22/19 A2993 RMK A01 T02220191  RH  083%=      5-min Rain = 0
KCO2 260757Z 15011KT 22/19 A2993 RMK A01 T02220192  RH  083%=      5-min Rain = 0
KCO2 260758Z 15010KT 22/19 A2993 RMK A01 T02220191  RH  083%=      5-min Rain = 0
KCO2 260759Z 15011KT 22/19 A2993 RMK A01 T02220191  RH  083%=      5-min Rain = 0
KCO2 260800Z 15012KT 22/19 A2993 RMK A01 T02210191  RH  083%=      5-min Rain = 0
KCO2 260801Z 15011KT 22/19 A2993 RMK A01 T02210191  RH  083%=      5-min Rain = 0
KCO2 260802Z 15012G17KT 22/19 A2993 RMK A01 T02210191  RH  083%=      5-min Rain = 0
KCO2 260803Z 15010KT 22/19 A2993 RMK A01 T02210191  RH  083%=      5-min Rain = 0
KCO2 260804Z 15010G15KT 22/19 A2993 RMK A01 T02210191  RH  083%=      5-min Rain = 0
KCO2 260805Z 15010KT 22/19 A2993 RMK A01 T02210191  RH  083%=      5-min Rain = 0
KCO2 260806Z 14012KT 22/19 A2993 RMK A01 T02210191  RH  084%=      5-min Rain = 0
KCO2 260807Z 15009KT 22/19 A2993 RMK A01 T02200191  RH  084%=      5-min Rain = 0
KCO2 260808Z 15009KT 22/19 A2993 RMK A01 T02200191  RH  084%=      5-min Rain = 0
KCO2 260809Z 15010KT 22/19 A2994 RMK A01 T02190191  RH  084%=      5-min Rain = 0
KCO2 260810Z 15009KT 22/19 A2994 RMK A01 T02190191  RH  084%=      5-min Rain = 0
KCO2 260811Z 15009KT 22/19 A2994 RMK A01 T02190192  RH  084%=      5-min Rain = 0
KCO2 260812Z 15009KT 22/19 A2994 RMK A01 T02190191  RH  084%=      5-min Rain = 0
KCO2 260813Z 15010KT 22/19 A2994 RMK A01 T02180191  RH  085%=      5-min Rain = 0
KCO2 260814Z 16010KT 22/19 A2994 RMK A01 T02180191  RH  085%=      5-min Rain = 0
KCO2 260815Z 16011KT 22/19 A2994 RMK A01 T02180191  RH  085%=      5-min Rain = 0
KCO2 260816Z 15010KT 22/19 A2994 RMK A01 T02180191  RH  084%=      5-min Rain = 0
KCO2 260817Z 15010KT 22/19 A2994 RMK A01 T02190191  RH  084%=      5-min Rain = 0
KCO2 260818Z 15010KT 22/19 A2994 RMK A01 T02190191  RH  084%=      5-min Rain = 0
KCO2 260819Z 16010KT 22/19 A2994 RMK A01 T02190191  RH  084%=      5-min Rain = 0
KCO2 260820Z 15010KT 22/19 A2994 RMK A01 T02180191  RH  084%=      5-min Rain = 0
KCO2 260821Z 16011KT 22/19 A2994 RMK A01 T02180191  RH  084%=      5-min Rain = 0
KCO2 260822Z 16011KT 22/19 A2994 RMK A01 T02180191  RH  084%=      5-min Rain = 0
KCO2 260823Z 15011KT 22/19 A2994 RMK A01 T02180191  RH  084%=      5-min Rain = 0
KCO2 260824Z 16012KT 22/19 A2994 RMK A01 T02180191  RH  084%=      5-min Rain = 0
KCO2 260825Z 16011KT 22/19 A2994 RMK A01 T02180190  RH  084%=      5-min Rain = 0
KCO2 260826Z 16010KT 22/19 A2994 RMK A01 T02190190  RH  084%=      5-min Rain = 0
KCO2 260827Z 16010KT 22/19 A2994 RMK A01 T02180190  RH  084%=      5-min Rain = 0
KCO2 260828Z 16011KT 22/19 A2994 RMK A01 T02190191  RH  084%=      5-min Rain = 0
KCO2 260829Z 16010KT 22/19 A2994 RMK A01 T02180191  RH  084%=      5-min Rain = 0
KCO2 260830Z 15010KT 22/19 A2994 RMK A01 T02180191  RH  084%=      5-min Rain = 0
KCO2 260831Z 16011KT 22/19 A2994 RMK A01 T02180191  RH  084%=      5-min Rain = 0
KCO2 260832Z 16011KT 22/19 A2994 RMK A01 T02180190  RH  084%=      5-min Rain = 0
KCO2 260833Z 15012G17KT 22/19 A2994 RMK A01 T02170190  RH  084%=      5-min Rain = 0
KCO2 260834Z 15012KT 22/19 A2994 RMK A01 T02170190  RH  085%=      5-min Rain = 0
KCO2 260835Z 16010KT 22/19 A2994 RMK A01 T02170190  RH  085%=      5-min Rain = 0
KCO2 260836Z 16010KT 22/19 A2994 RMK A01 T02170190  RH  085%=      5-min Rain = 0
KCO2 260837Z 16010KT 22/19 A2994 RMK A01 T02170190  RH  085%=      5-min Rain = 0
KCO2 260838Z 16011KT 22/19 A2994 RMK A01 T02160190  RH  085%=      5-min Rain = 0
KCO2 260839Z 16012KT 22/19 A2994 RMK A01 T02160190  RH  085%=      5-min Rain = 0
KCO2 260840Z 16012KT 22/19 A2994 RMK A01 T02170190  RH  085%=      5-min Rain = 0
KCO2 260841Z 16011KT 22/19 A2994 RMK A01 T02170190  RH  084%=      5-min Rain = 0
KCO2 260842Z 16012KT 22/19 A2994 RMK A01 T02170190  RH  084%=      5-min Rain = 0
KCO2 260843Z 15011KT 22/19 A2994 RMK A01 T02170190  RH  085%=      5-min Rain = 0
KCO2 260844Z 16011KT 22/19 A2994 RMK A01 T02170190  RH  085%=      5-min Rain = 0
KCO2 260845Z 16012KT 22/19 A2994 RMK A01 T02160190  RH  085%=      5-min Rain = 0
KCO2 260846Z 16012KT 22/19 A2994 RMK A01 T02160190  RH  085%=      5-min Rain = 0
KCO2 260847Z 15011KT 22/19 A2994 RMK A01 T02160189  RH  085%=      5-min Rain = 0
KCO2 260848Z 15012KT 22/19 A2994 RMK A01 T02160189  RH  085%=      5-min Rain = 0
KCO2 260849Z 16010KT 22/19 A2994 RMK A01 T02160189  RH  085%=      5-min Rain = 0
KCO2 260850Z 16011KT 22/19 A2994 RMK A01 T02160190  RH  085%=      5-min Rain = 0
KCO2 260851Z 15010KT 22/19 A2994 RMK A01 T02160190  RH  085%=      5-min Rain = 0
KCO2 260852Z 16013KT 22/19 A2994 RMK A01 T02160189  RH  085%=      5-min Rain = 0
KCO2 260853Z 15010KT 22/19 A2994 RMK A01 T02170190  RH  085%=      5-min Rain = 0
KCO2 260854Z 15012KT 22/19 A2994 RMK A01 T02160190  RH  085%=      5-min Rain = 0
KCO2 260855Z 16012KT 22/19 A2994 RMK A01 T02160189  RH  085%=      5-min Rain = 0
KCO2 260856Z 16011KT 22/19 A2994 RMK A01 T02160189  RH  085%=      5-min Rain = 0
KCO2 260857Z 15010KT 22/19 A2994 RMK A01 T02160189  RH  085%=      5-min Rain = 0
KCO2 260858Z 15009KT 22/19 A2994 RMK A01 T02160189  RH  085%=      5-min Rain = 0
KCO2 260859Z 16013G18KT 22/19 A2994 RMK A01 T02150189  RH  085%=      5-min Rain = 0
KCO2 260900Z 15011KT 22/19 A2994 RMK A01 T02150189  RH  085%=      5-min Rain = 0
KCO2 260901Z 15012KT 22/19 A2994 RMK A01 T02150189  RH  085%=      5-min Rain = 0
KCO2 260902Z 15011KT 22/19 A2994 RMK A01 T02150189  RH  085%=      5-min Rain = 0
KCO2 260903Z 16010KT 22/19 A2994 RMK A01 T02150189  RH  085%=      5-min Rain = 0
KCO2 260904Z 15010KT 22/19 A2994 RMK A01 T02150189  RH  085%=      5-min Rain = 0
KCO2 260905Z 16011KT 22/19 A2994 RMK A01 T02150189  RH  085%=      5-min Rain = 0
KCO2 260906Z 15009KT 21/19 A2994 RMK A01 T02140189  RH  085%=      5-min Rain = 0
KCO2 260907Z 15010KT 22/19 A2994 RMK A01 T02150189  RH  086%=      5-min Rain = 0
KCO2 260908Z 16010KT 21/19 A2994 RMK A01 T02140189  RH  086%=      5-min Rain = 0
KCO2 260909Z 15012KT 21/19 A2994 RMK A01 T02140189  RH  086%=      5-min Rain = 0
KCO2 260910Z 15010KT 21/19 A2994 RMK A01 T02140189  RH  086%=      5-min Rain = 0
KCO2 260911Z 15011KT 21/19 A2994 RMK A01 T02140189  RH  086%=      5-min Rain = 0
KCO2 260912Z 16009KT 21/19 A2995 RMK A01 T02140189  RH  086%=      5-min Rain = 0
KCO2 260913Z 15009KT 21/19 A2995 RMK A01 T02140189  RH  086%=      5-min Rain = 0
KCO2 260914Z 15010KT 21/19 A2995 RMK A01 T02140189  RH  086%=      5-min Rain = 0
KCO2 260915Z 15010KT 21/19 A2995 RMK A01 T02140189  RH  086%=      5-min Rain = 0
KCO2 260916Z 15009KT 21/19 A2995 RMK A01 T02140189  RH  086%=      5-min Rain = 0
KCO2 260917Z 16011KT 21/19 A2995 RMK A01 T02130189  RH  086%=      5-min Rain = 0
KCO2 260918Z 15013KT 21/19 A2995 RMK A01 T02130189  RH  086%=      5-min Rain = 0
KCO2 260919Z 15009KT 21/19 A2995 RMK A01 T02130188  RH  086%=      5-min Rain = 0
KCO2 260920Z 15009KT 21/19 A2995 RMK A01 T02130189  RH  086%=      5-min Rain = 0
KCO2 260921Z 15014KT 21/19 A2995 RMK A01 T02130189  RH  086%=      5-min Rain = 0
KCO2 260922Z 16012KT 21/19 A2995 RMK A01 T02130188  RH  086%=      5-min Rain = 0
KCO2 260923Z 15010KT 21/19 A2995 RMK A01 T02130188  RH  086%=      5-min Rain = 0
KCO2 260924Z 15010KT 21/19 A2995 RMK A01 T02140189  RH  086%=      5-min Rain = 0
KCO2 260925Z 15012KT 21/19 A2995 RMK A01 T02130188  RH  085%=      5-min Rain = 0
KCO2 260926Z 15012KT 21/19 A2995 RMK A01 T02140188  RH  085%=      5-min Rain = 0
KCO2 260927Z 15012KT 21/19 A2995 RMK A01 T02140188  RH  085%=      5-min Rain = 0
KCO2 260928Z 15013KT 21/19 A2995 RMK A01 T02140188  RH  085%=      5-min Rain = 0
KCO2 260929Z 15012KT 21/19 A2995 RMK A01 T02140188  RH  085%=      5-min Rain = 0
KCO2 260930Z 15010KT 21/19 A2995 RMK A01 T02140188  RH  085%=      5-min Rain = 0
KCO2 260931Z 15011KT 21/19 A2995 RMK A01 T02140189  RH  085%=      5-min Rain = 0
KCO2 260932Z 15011KT 21/19 A2995 RMK A01 T02140188  RH  085%=      5-min Rain = 0
KCO2 260933Z 15010KT 21/19 A2995 RMK A01 T02140188  RH  086%=      5-min Rain = 0
KCO2 260934Z 15012KT 21/19 A2995 RMK A01 T02130188  RH  086%=      5-min Rain = 0
KCO2 260935Z 15011KT 21/19 A2995 RMK A01 T02130188  RH  086%=      5-min Rain = 0
KCO2 260936Z 15012KT 21/19 A2995 RMK A01 T02130188  RH  086%=      5-min Rain = 0
KCO2 260937Z 16013KT 21/19 A2995 RMK A01 T02130188  RH  086%=      5-min Rain = 0
KCO2 260938Z 16011KT 21/19 A2995 RMK A01 T02130188  RH  086%=      5-min Rain = 0
KCO2 260939Z 15012KT 21/19 A2995 RMK A01 T02130188  RH  086%=      5-min Rain = 0
KCO2 260940Z 15010KT 21/19 A2995 RMK A01 T02130188  RH  085%=      5-min Rain = 0
KCO2 260941Z 15009KT 21/19 A2995 RMK A01 T02130188  RH  086%=      5-min Rain = 0
KCO2 260942Z 16010KT 21/19 A2995 RMK A01 T02130188  RH  086%=      5-min Rain = 0
KCO2 260943Z 15009KT 21/19 A2995 RMK A01 T02120188  RH  086%=      5-min Rain = 0
KCO2 260944Z 15010KT 21/19 A2995 RMK A01 T02120188  RH  086%=      5-min Rain = 0
KCO2 260945Z 16011G17KT 21/19 A2995 RMK A01 T02110188  RH  086%=      5-min Rain = 0
KCO2 260946Z 16011KT 21/19 A2995 RMK A01 T02110188  RH  086%=      5-min Rain = 0
KCO2 260947Z 15012KT 21/19 A2995 RMK A01 T02110187  RH  086%=      5-min Rain = 0
KCO2 260948Z 15011KT 21/19 A2995 RMK A01 T02120187  RH  086%=      5-min Rain = 0
KCO2 260949Z 16010KT 21/19 A2995 RMK A01 T02120187  RH  086%=      5-min Rain = 0
KCO2 260950Z 15010KT 21/19 A2995 RMK A01 T02120188  RH  086%=      5-min Rain = 0
KCO2 260951Z 15012G17KT 21/19 A2995 RMK A01 T02120187  RH  086%=      5-min Rain = 0
KCO2 260952Z 16012KT 21/19 A2995 RMK A01 T02110187  RH  086%=      5-min Rain = 0
KCO2 260953Z 15011KT 21/19 A2995 RMK A01 T02110187  RH  086%=      5-min Rain = 0
KCO2 260954Z 16013KT 21/19 A2995 RMK A01 T02110187  RH  086%=      5-min Rain = 0
KCO2 260955Z 15011KT 21/19 A2995 RMK A01 T02120187  RH  086%=      5-min Rain = 0
KCO2 260956Z 15012KT 21/19 A2995 RMK A01 T02120187  RH  086%=      5-min Rain = 0
KCO2 260957Z 15012KT 21/19 A2995 RMK A01 T02110187  RH  086%=      5-min Rain = 0
KCO2 260958Z 15013KT 21/19 A2995 RMK A01 T02110187  RH  086%=      5-min Rain = 0
KCO2 260959Z 15012KT 21/19 A2995 RMK A01 T02110187  RH  086%=      5-min Rain = 0
KCO2 261000Z 15011KT 21/19 A2995 RMK A01 T02120187  RH  086%=      5-min Rain = 0
KCO2 261001Z 15011G16KT 21/19 A2995 RMK A01 T02120187  RH  086%=      5-min Rain = 0
KCO2 261002Z 16015KT 21/19 A2995 RMK A01 T02110187  RH  086%=      5-min Rain = 0
KCO2 261003Z 15012KT 21/19 A2995 RMK A01 T02110187  RH  086%=      5-min Rain = 0
KCO2 261004Z 15012KT 21/19 A2995 RMK A01 T02110187  RH  086%=      5-min Rain = 0
KCO2 261005Z 15012KT 21/19 A2995 RMK A01 T02110187  RH  086%=      5-min Rain = 0
KCO2 261006Z 15012KT 21/19 A2995 RMK A01 T02110187  RH  086%=      5-min Rain = 0
KCO2 261007Z 15010KT 21/19 A2995 RMK A01 T02110187  RH  086%=      5-min Rain = 0
KCO2 261008Z 16010KT 21/19 A2995 RMK A01 T02110187  RH  086%=      5-min Rain = 0
KCO2 261009Z 16011KT 21/19 A2995 RMK A01 T02100187  RH  087%=      5-min Rain = 0
KCO2 261010Z 15013KT 21/19 A2995 RMK A01 T02110188  RH  087%=      5-min Rain = 0
KCO2 261011Z 15010KT 21/19 A2995 RMK A01 T02100187  RH  087%=      5-min Rain = 0
KCO2 261012Z 15014KT 21/19 A2995 RMK A01 T02100187  RH  087%=      5-min Rain = 0
KCO2 261013Z 16014KT 21/19 A2995 RMK A01 T02110187  RH  086%=      5-min Rain = 0
KCO2 261014Z 16011KT 21/19 A2995 RMK A01 T02110187  RH  086%=      5-min Rain = 0
KCO2 261015Z 16014G19KT 21/19 A2995 RMK A01 T02110187  RH  086%=      5-min Rain = 0
KCO2 261016Z 16013KT 21/19 A2995 RMK A01 T02120187  RH  086%=      5-min Rain = 0
KCO2 261017Z 16014KT 21/19 A2995 RMK A01 T02120187  RH  086%=      5-min Rain = 0
KCO2 261018Z 15015KT 21/19 A2995 RMK A01 T02120187  RH  086%=      5-min Rain = 0
KCO2 261019Z 16013KT 21/19 A2995 RMK A01 T02120187  RH  085%=      5-min Rain = 0
KCO2 261020Z 15014KT 21/19 A2995 RMK A01 T02120186  RH  085%=      5-min Rain = 0
KCO2 261021Z 15013KT 21/19 A2995 RMK A01 T02130187  RH  085%=      5-min Rain = 0
KCO2 261022Z 15013KT 21/19 A2995 RMK A01 T02130187  RH  085%=      5-min Rain = 0
KCO2 261023Z 15014KT 21/19 A2995 RMK A01 T02130187  RH  085%=      5-min Rain = 0
KCO2 261024Z 15012KT 21/19 A2995 RMK A01 T02130187  RH  085%=      5-min Rain = 0
KCO2 261025Z 16012KT 21/19 A2995 RMK A01 T02130187  RH  085%=      5-min Rain = 0
KCO2 261026Z 16010KT 21/19 A2995 RMK A01 T02130187  RH  085%=      5-min Rain = 0
KCO2 261027Z 16012KT 21/19 A2995 RMK A01 T02130187  RH  085%=      5-min Rain = 0
KCO2 261028Z 15014KT 21/19 A2995 RMK A01 T02130187  RH  085%=      5-min Rain = 0
KCO2 261029Z 15012KT 21/19 A2996 RMK A01 T02120187  RH  085%=      5-min Rain = 0
KCO2 261030Z 15013KT 21/19 A2996 RMK A01 T02120187  RH  085%=      5-min Rain = 0
KCO2 261031Z 15013KT 21/19 A2996 RMK A01 T02120186  RH  085%=      5-min Rain = 0
KCO2 261032Z 16013KT 21/19 A2996 RMK A01 T02120186  RH  085%=      5-min Rain = 0
KCO2 261033Z 15013KT 21/19 A2996 RMK A01 T02120186  RH  085%=      5-min Rain = 0
KCO2 261034Z 15013KT 21/19 A2996 RMK A01 T02120187  RH  085%=      5-min Rain = 0
KCO2 261035Z 15011KT 21/19 A2996 RMK A01 T02120187  RH  085%=      5-min Rain = 0
KCO2 261036Z 15011KT 21/19 A2995 RMK A01 T02120187  RH  085%=      5-min Rain = 0
KCO2 261037Z 15011KT 21/19 A2995 RMK A01 T02120187  RH  085%=      5-min Rain = 0
KCO2 261038Z 16012KT 21/19 A2995 RMK A01 T02120187  RH  085%=      5-min Rain = 0
KCO2 261039Z 15013KT 21/19 A2995 RMK A01 T02120186  RH  085%=      5-min Rain = 0
KCO2 261040Z 16011KT 21/19 A2996 RMK A01 T02120186  RH  085%=      5-min Rain = 0
KCO2 261041Z 15011KT 21/19 A2996 RMK A01 T02120186  RH  085%=      5-min Rain = 0
KCO2 261042Z 16012KT 21/19 A2996 RMK A01 T02120187  RH  086%=      5-min Rain = 0
KCO2 261043Z 15014KT 21/19 A2996 RMK A01 T02120187  RH  086%=      5-min Rain = 0
KCO2 261044Z 15012KT 21/19 A2996 RMK A01 T02120186  RH  085%=      5-min Rain = 0
KCO2 261045Z 15012KT 21/19 A2996 RMK A01 T02120186  RH  085%=      5-min Rain = 0
KCO2 261046Z 15013KT 21/19 A2996 RMK A01 T02120186  RH  085%=      5-min Rain = 0
KCO2 261047Z 15011KT 21/19 A2996 RMK A01 T02120186  RH  085%=      5-min Rain = 0
KCO2 261048Z 15012KT 21/19 A2996 RMK A01 T02120186  RH  085%=      5-min Rain = 0
KCO2 261049Z 15012KT 21/19 A2996 RMK A01 T02120186  RH  085%=      5-min Rain = 0
KCO2 261050Z 15014KT 21/19 A2996 RMK A01 T02120186  RH  085%=      5-min Rain = 0
KCO2 261051Z 16014KT 21/19 A2996 RMK A01 T02120186  RH  085%=      5-min Rain = 0
KCO2 261052Z 15012KT 21/19 A2996 RMK A01 T02120186  RH  085%=      5-min Rain = 0
KCO2 261053Z 15016KT 21/19 A2997 RMK A01 T02120185  RH  085%=      5-min Rain = 0
KCO2 261054Z 15014KT 21/19 A2997 RMK A01 T02120185  RH  085%=      5-min Rain = 0
KCO2 261055Z 14012KT 21/19 A2997 RMK A01 T02120185  RH  085%=      5-min Rain = 0
KCO2 261056Z 15013KT 21/19 A2997 RMK A01 T02120185  RH  085%=      5-min Rain = 0
KCO2 261057Z 15013KT 21/19 A2997 RMK A01 T02120185  RH  085%=      5-min Rain = 0
KCO2 261058Z 15014KT 21/19 A2997 RMK A01 T02120185  RH  085%=      5-min Rain = 0
KCO2 261059Z 15012KT 21/19 A2997 RMK A01 T02120185  RH  085%=      5-min Rain = 0
KCO2 261100Z 15011KT 21/19 A2997 RMK A01 T02120185  RH  085%=      5-min Rain = 0
KCO2 261101Z 15009KT 21/19 A2997 RMK A01 T02120186  RH  085%=      5-min Rain = 0
KCO2 261102Z 15012KT 21/19 A2997 RMK A01 T02110186  RH  085%=      5-min Rain = 0
KCO2 261103Z 15011KT 21/19 A2997 RMK A01 T02110186  RH  085%=      5-min Rain = 0
KCO2 261104Z 15012KT 21/19 A2997 RMK A01 T02110186  RH  085%=      5-min Rain = 0
KCO2 261105Z 15011KT 21/19 A2997 RMK A01 T02110185  RH  085%=      5-min Rain = 0
KCO2 261106Z 15011KT 21/19 A2997 RMK A01 T02110185  RH  085%=      5-min Rain = 0
KCO2 261107Z 15011KT 21/19 A2997 RMK A01 T02110185  RH  085%=      5-min Rain = 0
KCO2 261108Z 15010KT 21/19 A2997 RMK A01 T02110185  RH  085%=      5-min Rain = 0
KCO2 261109Z 15011G17KT 21/19 A2997 RMK A01 T02100185  RH  085%=      5-min Rain = 0
KCO2 261110Z 15014KT 21/19 A2997 RMK A01 T02100185  RH  085%=      5-min Rain = 0
KCO2 261111Z 15012KT 21/19 A2997 RMK A01 T02100185  RH  085%=      5-min Rain = 0
KCO2 261112Z 15010KT 21/19 A2998 RMK A01 T02100185  RH  085%=      5-min Rain = 0
KCO2 261113Z 15008KT 21/19 A2998 RMK A01 T02110185  RH  085%=      5-min Rain = 0
KCO2 261114Z 15010KT 21/19 A2998 RMK A01 T02100185  RH  086%=      5-min Rain = 0
KCO2 261115Z 14012KT 21/19 A2998 RMK A01 T02100185  RH  086%=      5-min Rain = 0
KCO2 261116Z 15016KT 21/18 A2998 RMK A01 T02100184  RH  085%=      5-min Rain = 0
KCO2 261117Z 15014KT 21/18 A2998 RMK A01 T02100183  RH  085%=      5-min Rain = 0
KCO2 261118Z 15012KT 21/18 A2998 RMK A01 T02100184  RH  085%=      5-min Rain = 0
KCO2 261119Z 15014KT 21/18 A2998 RMK A01 T02100184  RH  085%=      5-min Rain = 0
KCO2 261120Z 15013KT 21/18 A2998 RMK A01 T02100184  RH  085%=      5-min Rain = 0
KCO2 261121Z 15013KT 21/18 A2998 RMK A01 T02100184  RH  085%=      5-min Rain = 0
KCO2 261122Z 15013KT 21/18 A2998 RMK A01 T02100184  RH  085%=      5-min Rain = 0
KCO2 261123Z 15014KT 21/18 A2998 RMK A01 T02100184  RH  085%=      5-min Rain = 0
KCO2 261124Z 15012KT 21/18 A2998 RMK A01 T02100183  RH  085%=      5-min Rain = 0
KCO2 261125Z 15012G17KT 21/18 A2998 RMK A01 T02100183  RH  085%=      5-min Rain = 0
KCO2 261126Z 15013KT 21/18 A2998 RMK A01 T02100183  RH  085%=      5-min Rain = 0
KCO2 261127Z 16014KT 21/18 A2998 RMK A01 T02100184  RH  085%=      5-min Rain = 0
KCO2 261128Z 15015KT 21/18 A2998 RMK A01 T02100184  RH  085%=      5-min Rain = 0
KCO2 261129Z 16012KT 21/18 A2998 RMK A01 T02100183  RH  085%=      5-min Rain = 0
KCO2 261130Z 15014KT 21/18 A2998 RMK A01 T02100183  RH  085%=      5-min Rain = 0
KCO2 261131Z 15013KT 21/18 A2998 RMK A01 T02100183  RH  085%=      5-min Rain = 0
KCO2 261132Z 15015KT 21/18 A2998 RMK A01 T02100183  RH  084%=      5-min Rain = 0
KCO2 261133Z 16011KT 21/18 A2998 RMK A01 T02100183  RH  084%=      5-min Rain = 0
KCO2 261134Z 15013KT 21/18 A2998 RMK A01 T02100183  RH  084%=      5-min Rain = 0
KCO2 261135Z 15013KT 21/18 A2998 RMK A01 T02100183  RH  084%=      5-min Rain = 0
KCO2 261136Z 15012KT 21/18 A2998 RMK A01 T02100183  RH  085%=      5-min Rain = 0
KCO2 261137Z 15011KT 21/18 A2998 RMK A01 T02100183  RH  085%=      5-min Rain = 0
KCO2 261138Z 15010KT 21/18 A2998 RMK A01 T02100183  RH  085%=      5-min Rain = 0
KCO2 261139Z 15011KT 21/18 A2998 RMK A01 T02100183  RH  085%=      5-min Rain = 0
KCO2 261140Z 15011KT 21/18 A2999 RMK A01 T02100183  RH  085%=      5-min Rain = 0
KCO2 261141Z 15013KT 21/18 A2999 RMK A01 T02100183  RH  085%=      5-min Rain = 0
KCO2 261142Z 15013KT 21/18 A2999 RMK A01 T02100182  RH  084%=      5-min Rain = 0
KCO2 261143Z 15011KT 21/18 A2999 RMK A01 T02090182  RH  084%=      5-min Rain = 0
KCO2 261144Z 16013KT 21/18 A2999 RMK A01 T02100182  RH  084%=      5-min Rain = 0
KCO2 261145Z 16014KT 21/18 A2999 RMK A01 T02100182  RH  084%=      5-min Rain = 0
KCO2 261146Z 15011KT 21/18 A2999 RMK A01 T02090182  RH  084%=      5-min Rain = 0
KCO2 261147Z 16012KT 21/18 A2999 RMK A01 T02090182  RH  084%=      5-min Rain = 0
KCO2 261148Z 15012KT 21/18 A2999 RMK A01 T02090182  RH  084%=      5-min Rain = 0
KCO2 261149Z 15011KT 21/18 A2999 RMK A01 T02090182  RH  084%=      5-min Rain = 0
KCO2 261150Z 15011KT 21/18 A2999 RMK A01 T02090182  RH  084%=      5-min Rain = 0
KCO2 261151Z 15011KT 21/18 A2999 RMK A01 T02090182  RH  084%=      5-min Rain = 0
KCO2 261152Z 15011KT 21/18 A2999 RMK A01 T02100182  RH  084%=      5-min Rain = 0
KCO2 261153Z 15012KT 21/18 A2999 RMK A01 T02100182  RH  084%=      5-min Rain = 0
KCO2 261154Z 16012KT 21/18 A2999 RMK A01 T02090182  RH  084%=      5-min Rain = 0
KCO2 261155Z 15011KT 21/18 A2999 RMK A01 T02100182  RH  084%=      5-min Rain = 0
KCO2 261156Z 15009KT 21/18 A2999 RMK A01 T02090182  RH  084%=      5-min Rain = 0
KCO2 261157Z 15012KT 21/18 A2999 RMK A01 T02100182  RH  084%=      5-min Rain = 0
KCO2 261158Z 15011G16KT 21/18 A2999 RMK A01 T02090182  RH  084%=      5-min Rain = 0
KCO2 261159Z 15010KT 21/18 A2999 RMK A01 T02100182  RH  084%=      5-min Rain = 0
KCO2 261200Z 15011KT 21/18 A2999 RMK A01 T02090182  RH  084%=      5-min Rain = 0
KCO2 261201Z 15012KT 21/18 A2999 RMK A01 T02100182  RH  084%=      5-min Rain = 0
KCO2 261202Z 16013KT 21/18 A2999 RMK A01 T02100182  RH  084%=      5-min Rain = 0
KCO2 261203Z 15012KT 21/18 A2999 RMK A01 T02090181  RH  084%=      5-min Rain = 0
KCO2 261204Z 15009KT 21/18 A2999 RMK A01 T02100182  RH  084%=      5-min Rain = 0
KCO2 261205Z 15011KT 21/18 A2999 RMK A01 T02100182  RH  084%=      5-min Rain = 0
KCO2 261206Z 15012KT 21/18 A2999 RMK A01 T02100182  RH  084%=      5-min Rain = 0
KCO2 261207Z 15011KT 21/18 A2999 RMK A01 T02090181  RH  084%=      5-min Rain = 0
KCO2 261208Z 15010KT 21/18 A2999 RMK A01 T02090182  RH  084%=      5-min Rain = 0
KCO2 261209Z 15011G16KT 21/18 A2999 RMK A01 T02100182  RH  084%=      5-min Rain = 0
KCO2 261210Z 15013KT 21/18 A2999 RMK A01 T02100182  RH  084%=      5-min Rain = 0
KCO2 261211Z 14011KT 21/18 A30 RMK A01 T02090181  RH  084%=      5-min Rain = 0
KCO2 261212Z 14010KT 21/18 A30 RMK A01 T02100182  RH  084%=      5-min Rain = 0
KCO2 261213Z 15010KT 21/18 A30 RMK A01 T02090182  RH  084%=      5-min Rain = 0
KCO2 261214Z 14011KT 21/18 A30 RMK A01 T02090182  RH  084%=      5-min Rain = 0
KCO2 261215Z 15012KT 21/18 A30 RMK A01 T02090182  RH  084%=      5-min Rain = 0
KCO2 261216Z 14011KT 21/18 A30 RMK A01 T02090182  RH  084%=      5-min Rain = 0
KCO2 261217Z 15012KT 21/18 A30 RMK A01 T02090181  RH  084%=      5-min Rain = 0
KCO2 261218Z 15012KT 21/18 A30 RMK A01 T02090181  RH  084%=      5-min Rain = 0
KCO2 261219Z 14012KT 21/18 A30 RMK A01 T02090181  RH  084%=      5-min Rain = 0
KCO2 261220Z 15012KT 21/18 A30 RMK A01 T02090182  RH  084%=      5-min Rain = 0
KCO2 261221Z 15011KT 21/18 A30 RMK A01 T02090182  RH  084%=      5-min Rain = 0
KCO2 261222Z 15012KT 21/18 A30 RMK A01 T02090181  RH  084%=      5-min Rain = 0
KCO2 261223Z 15013KT 21/18 A30 RMK A01 T02090181  RH  084%=      5-min Rain = 0
KCO2 261224Z 15012KT 21/18 A30 RMK A01 T02090181  RH  084%=      5-min Rain = 0
KCO2 261225Z 14013KT 21/18 A30 RMK A01 T02090181  RH  084%=      5-min Rain = 0
KCO2 261226Z 14013KT 21/18 A30 RMK A01 T02090181  RH  084%=      5-min Rain = 0
KCO2 261227Z 15012KT 21/18 A30 RMK A01 T02090181  RH  084%=      5-min Rain = 0
KCO2 261228Z 15011KT 21/18 A30 RMK A01 T02090181  RH  084%=      5-min Rain = 0
KCO2 261229Z 14009KT 21/18 A30 RMK A01 T02090182  RH  084%=      5-min Rain = 0
KCO2 261230Z 15011KT 21/18 A30 RMK A01 T02090182  RH  084%=      5-min Rain = 0
KCO2 261231Z 15012KT 21/18 A30 RMK A01 T02090181  RH  084%=      5-min Rain = 0
KCO2 261232Z 14009KT 21/18 A30 RMK A01 T02090182  RH  084%=      5-min Rain = 0
KCO2 261233Z 14009KT 21/18 A3001 RMK A01 T02090182  RH  085%=      5-min Rain = 0
KCO2 261234Z 14010KT 21/18 A3001 RMK A01 T02090182  RH  085%=      5-min Rain = 0
KCO2 261235Z 15009KT 21/18 A3001 RMK A01 T02080182  RH  085%=      5-min Rain = 0
KCO2 261236Z 15008KT 21/18 A3001 RMK A01 T02080182  RH  085%=      5-min Rain = 0
KCO2 261237Z 14010KT 21/18 A3001 RMK A01 T02080182  RH  085%=      5-min Rain = 0
KCO2 261238Z 15010KT 21/18 A3001 RMK A01 T02080182  RH  085%=      5-min Rain = 0
KCO2 261239Z 15010KT 21/18 A3001 RMK A01 T02080181  RH  085%=      5-min Rain = 0
KCO2 261240Z 15011KT 21/18 A3001 RMK A01 T02080181  RH  085%=      5-min Rain = 0
KCO2 261241Z 15012KT 21/18 A3001 RMK A01 T02080181  RH  084%=      5-min Rain = 0
KCO2 261242Z 15010KT 21/18 A3001 RMK A01 T02080180  RH  084%=      5-min Rain = 0
KCO2 261243Z 15011KT 21/18 A3001 RMK A01 T02080181  RH  084%=      5-min Rain = 0
KCO2 261244Z 15012KT 21/18 A3001 RMK A01 T02080181  RH  084%=      5-min Rain = 0
KCO2 261245Z 14010KT 21/18 A3001 RMK A01 T02080180  RH  084%=      5-min Rain = 0
KCO2 261246Z 15011KT 21/18 A3001 RMK A01 T02090181  RH  084%=      5-min Rain = 0
KCO2 261247Z 15010KT 21/18 A3001 RMK A01 T02090181  RH  084%=      5-min Rain = 0
KCO2 261248Z 15011KT 21/18 A3001 RMK A01 T02090181  RH  084%=      5-min Rain = 0
KCO2 261249Z 14010KT 21/18 A3001 RMK A01 T02090181  RH  084%=      5-min Rain = 0
KCO2 261250Z 15011KT 21/18 A3001 RMK A01 T02090181  RH  084%=      5-min Rain = 0
KCO2 261251Z 15010KT 21/18 A3001 RMK A01 T02100181  RH  084%=      5-min Rain = 0
KCO2 261252Z 16011KT 21/18 A3001 RMK A01 T02100181  RH  084%=      5-min Rain = 0
KCO2 261253Z 14010KT 21/18 A3001 RMK A01 T02100181  RH  083%=      5-min Rain = 0
KCO2 261254Z 15011KT 21/18 A3001 RMK A01 T02110182  RH  083%=      5-min Rain = 0
KCO2 261255Z 15012KT 21/18 A3001 RMK A01 T02110181  RH  083%=      5-min Rain = 0
KCO2 261256Z 15011KT 21/18 A3001 RMK A01 T02110181  RH  083%=      5-min Rain = 0
KCO2 261257Z 15011KT 21/18 A3001 RMK A01 T02110181  RH  083%=      5-min Rain = 0
KCO2 261258Z 15010KT 21/18 A3001 RMK A01 T02110181  RH  083%=      5-min Rain = 0
KCO2 261259Z 16009KT 21/18 A3001 RMK A01 T02120182  RH  083%=      5-min Rain = 0
KCO2 261300Z 16011KT 21/18 A3001 RMK A01 T02120182  RH  083%=      5-min Rain = 0
KCO2 261301Z 15011G17KT 21/18 A3001 RMK A01 T02120181  RH  083%=      5-min Rain = 0
KCO2 261302Z 15012KT 21/18 A3001 RMK A01 T02120181  RH  083%=      5-min Rain = 0
KCO2 261303Z 14010KT 21/18 A3001 RMK A01 T02120181  RH  083%=      5-min Rain = 0
KCO2 261304Z 14010KT 21/18 A3001 RMK A01 T02120181  RH  083%=      5-min Rain = 0
KCO2 261305Z 15012KT 21/18 A3001 RMK A01 T02120181  RH  083%=      5-min Rain = 0
KCO2 261306Z 15011KT 21/18 A3001 RMK A01 T02120181  RH  083%=      5-min Rain = 0
KCO2 261307Z 15014KT 21/18 A3001 RMK A01 T02120181  RH  082%=      5-min Rain = 0
KCO2 261308Z 15013KT 21/18 A3002 RMK A01 T02120180  RH  082%=      5-min Rain = 0
KCO2 261309Z 15013KT 21/18 A3002 RMK A01 T02120180  RH  082%=      5-min Rain = 0
KCO2 261310Z 15011KT 21/18 A3002 RMK A01 T02120181  RH  082%=      5-min Rain = 0
KCO2 261311Z 15010KT 21/18 A3002 RMK A01 T02110181  RH  083%=      5-min Rain = 0
KCO2 261312Z 15010KT 21/18 A3002 RMK A01 T02110181  RH  083%=      5-min Rain = 0
KCO2 261313Z 15011KT 21/18 A3002 RMK A01 T02120181  RH  083%=      5-min Rain = 0
KCO2 261314Z 15011G16KT 21/18 A3002 RMK A01 T02110181  RH  083%=      5-min Rain = 0
KCO2 261315Z 15015KT 21/18 A3002 RMK A01 T02110180  RH  083%=      5-min Rain = 0
KCO2 261316Z 15012KT 21/18 A3002 RMK A01 T02110180  RH  082%=      5-min Rain = 0
KCO2 261317Z 15011KT 21/18 A3002 RMK A01 T02110181  RH  083%=      5-min Rain = 0
KCO2 261318Z 15011KT 21/18 A3002 RMK A01 T02110181  RH  083%=      5-min Rain = 0
KCO2 261319Z 15012KT 21/18 A3001 RMK A01 T02110181  RH  083%=      5-min Rain = 0
KCO2 261320Z 14011KT 21/18 A3001 RMK A01 T02110181  RH  083%=      5-min Rain = 0
KCO2 261321Z 14014KT 21/18 A3001 RMK A01 T02110181  RH  083%=      5-min Rain = 0
KCO2 261322Z 15013G18KT 21/18 A3001 RMK A01 T02110181  RH  083%=      5-min Rain = 0
KCO2 261323Z 15015KT 21/18 A3001 RMK A01 T02110181  RH  083%=      5-min Rain = 0
KCO2 261324Z 15015KT 21/18 A3001 RMK A01 T02110180  RH  082%=      5-min Rain = 0
KCO2 261325Z 15015KT 21/18 A3001 RMK A01 T02110180  RH  082%=      5-min Rain = 0
KCO2 261326Z 14015KT 21/18 A3001 RMK A01 T02110180  RH  082%=      5-min Rain = 0
KCO2 261327Z 15012KT 21/18 A3001 RMK A01 T02110180  RH  082%=      5-min Rain = 0
KCO2 261328Z 16012KT 21/18 A3001 RMK A01 T02110181  RH  083%=      5-min Rain = 0
KCO2 261329Z 16013KT 21/18 A3001 RMK A01 T02110180  RH  083%=      5-min Rain = 0
KCO2 261330Z 15013KT 21/18 A3001 RMK A01 T02120181  RH  082%=      5-min Rain = 0
KCO2 261331Z 15012G17KT 21/18 A3001 RMK A01 T02110181  RH  083%=      5-min Rain = 0
KCO2 261332Z 15016KT 21/18 A3001 RMK A01 T02110180  RH  082%=      5-min Rain = 0
KCO2 261333Z 15016KT 21/18 A3001 RMK A01 T02110180  RH  082%=      5-min Rain = 0
KCO2 261334Z 14015KT 21/18 A3001 RMK A01 T02110180  RH  082%=      5-min Rain = 0
KCO2 261335Z 15013KT 21/18 A3001 RMK A01 T02110180  RH  082%=      5-min Rain = 0
KCO2 261336Z 15012G17KT 21/18 A3001 RMK A01 T02120181  RH  082%=      5-min Rain = 0
KCO2 261337Z 15014KT 21/18 A3001 RMK A01 T02120181  RH  082%=      5-min Rain = 0
KCO2 261338Z 14013KT 21/18 A3001 RMK A01 T02120180  RH  082%=      5-min Rain = 0
KCO2 261339Z 15013KT 21/18 A3001 RMK A01 T02120181  RH  082%=      5-min Rain = 0
KCO2 261340Z 15014KT 21/18 A3001 RMK A01 T02120181  RH  082%=      5-min Rain = 0
KCO2 261341Z 15016KT 21/18 A3001 RMK A01 T02120180  RH  082%=      5-min Rain = 0
KCO2 261342Z 15014KT 21/18 A3001 RMK A01 T02130180  RH  082%=      5-min Rain = 0
KCO2 261343Z 15013KT 21/18 A3001 RMK A01 T02130181  RH  082%=      5-min Rain = 0
KCO2 261344Z 15013KT 21/18 A3001 RMK A01 T02140182  RH  082%=      5-min Rain = 0
KCO2 261345Z 15014KT 21/18 A3001 RMK A01 T02140181  RH  082%=      5-min Rain = 0
KCO2 261346Z 14013G18KT 21/18 A3001 RMK A01 T02140182  RH  082%=      5-min Rain = 0
KCO2 261347Z 14015KT 21/18 A3001 RMK A01 T02140181  RH  081%=      5-min Rain = 0
KCO2 261348Z 15016KT 22/18 A3001 RMK A01 T02150181  RH  081%=      5-min Rain = 0
KCO2 261349Z 15015KT 21/18 A3001 RMK A01 T02140181  RH  081%=      5-min Rain = 0
KCO2 261350Z 15015KT 21/18 A3001 RMK A01 T02140181  RH  081%=      5-min Rain = 0
KCO2 261351Z 15014KT 21/18 A3001 RMK A01 T02140181  RH  081%=      5-min Rain = 0
KCO2 261352Z 14012G17KT 21/18 A3001 RMK A01 T02140181  RH  082%=      5-min Rain = 0
KCO2 261353Z 15018KT 21/18 A3001 RMK A01 T02140181  RH  082%=      5-min Rain = 0
KCO2 261354Z 15017KT 21/18 A3001 RMK A01 T02130180  RH  081%=      5-min Rain = 0
KCO2 261355Z 15017KT 21/18 A3001 RMK A01 T02130180  RH  082%=      5-min Rain = 0
KCO2 261356Z 15013G18KT 21/18 A3001 RMK A01 T02130181  RH  082%=      5-min Rain = 0
KCO2 261357Z 15017KT 21/18 A3001 RMK A01 T02130181  RH  082%=      5-min Rain = 0
KCO2 261358Z 14019KT 21/18 A3001 RMK A01 T02130180  RH  081%=      5-min Rain = 0
KCO2 261359Z 15015KT 21/18 A3001 RMK A01 T02130181  RH  082%=      5-min Rain = 0
KCO2 261400Z 16016KT 21/18 A3001 RMK A01 T02130181  RH  082%=      5-min Rain = 0
KCO2 261401Z 15015KT 21/18 A3001 RMK A01 T02140181  RH  082%=      5-min Rain = 0
KCO2 261402Z 16014G20KT 21/18 A3001 RMK A01 T02140181  RH  082%=      5-min Rain = 0
KCO2 261403Z 15015KT 21/18 A3001 RMK A01 T02140181  RH  081%=      5-min Rain = 0
KCO2 261404Z 15013KT 21/18 A3001 RMK A01 T02140181  RH  081%=      5-min Rain = 0
KCO2 261405Z 15018G23KT 22/18 A3001 RMK A01 T02150182  RH  082%=      5-min Rain = 0
KCO2 261406Z 15020KT 22/18 A3001 RMK A01 T02150180  RH  081%=      5-min Rain = 0
KCO2 261407Z 15020KT 21/18 A3001 RMK A01 T02140180  RH  081%=      5-min Rain = 0
KCO2 261408Z 15016G21KT 21/18 A3001 RMK A01 T02140180  RH  081%=      5-min Rain = 0
KCO2 261409Z 15014KT 21/18 A3001 RMK A01 T02140181  RH  082%=      5-min Rain = 0
KCO2 261410Z 15016KT 21/18 A3001 RMK A01 T02140181  RH  081%=      5-min Rain = 0
KCO2 261411Z 15016KT 21/18 A3001 RMK A01 T02140181  RH  081%=      5-min Rain = 0
KCO2 261412Z 14014KT 21/18 A3001 RMK A01 T02140181  RH  081%=      5-min Rain = 0
KCO2 261413Z 15015KT 22/18 A3001 RMK A01 T02150181  RH  081%=      5-min Rain = 0
KCO2 261414Z 15016G21KT 22/18 A3001 RMK A01 T02150182  RH  081%=      5-min Rain = 0
KCO2 261415Z 15018KT 22/18 A3001 RMK A01 T02150181  RH  081%=      5-min Rain = 0
KCO2 261416Z 15016G22KT 22/18 A3001 RMK A01 T02150181  RH  081%=      5-min Rain = 0
KCO2 261417Z 15018G23KT 22/18 A3001 RMK A01 T02160181  RH  081%=      5-min Rain = 0
KCO2 261418Z 14014KT 22/18 A3002 RMK A01 T02150181  RH  081%=      5-min Rain = 0
KCO2 261419Z 15012G19KT 22/18 A3001 RMK A01 T02150183  RH  082%=      5-min Rain = 0
KCO2 261420Z 15017KT 22/18 A3002 RMK A01 T02160182  RH  081%=      5-min Rain = 0
KCO2 261421Z 15016KT 22/18 A3001 RMK A01 T02160182  RH  081%=      5-min Rain = 0
KCO2 261422Z 15016G21KT 22/18 A3002 RMK A01 T02150182  RH  081%=      5-min Rain = 0
KCO2 261423Z 15014G19KT 22/18 A3002 RMK A01 T02150182  RH  081%=      5-min Rain = 0
KCO2 261424Z 14014KT 22/18 A3002 RMK A01 T02150182  RH  081%=      5-min Rain = 0
KCO2 261425Z 15011KT 22/18 A3002 RMK A01 T02150182  RH  081%=      5-min Rain = 0
KCO2 261426Z 15014KT 22/18 A3001 RMK A01 T02160182  RH  081%=      5-min Rain = 0
KCO2 261427Z 16014KT 22/18 A3002 RMK A01 T02150182  RH  081%=      5-min Rain = 0
KCO2 261428Z 15014KT 22/18 A3002 RMK A01 T02160182  RH  081%=      5-min Rain = 0
KCO2 261429Z 15014G19KT 22/18 A3001 RMK A01 T02160182  RH  081%=      5-min Rain = 0
KCO2 261430Z 16015KT 22/18 A3001 RMK A01 T02150182  RH  081%=      5-min Rain = 0
KCO2 261431Z 16015KT 22/18 A3002 RMK A01 T02160182  RH  081%=      5-min Rain = 0
KCO2 261432Z 15013KT 22/18 A3002 RMK A01 T02160182  RH  081%=      5-min Rain = 0
KCO2 261433Z 15014KT 22/18 A3002 RMK A01 T02160182  RH  081%=      5-min Rain = 0
KCO2 261434Z 15014KT 22/18 A3002 RMK A01 T02160182  RH  081%=      5-min Rain = 0
KCO2 261435Z 15012KT 22/18 A3002 RMK A01 T02160183  RH  081%=      5-min Rain = 0
KCO2 261436Z 15016KT 22/18 A3002 RMK A01 T02160183  RH  081%=      5-min Rain = 0
KCO2 261437Z 15016KT 22/18 A3002 RMK A01 T02160182  RH  081%=      5-min Rain = 0
KCO2 261438Z 15016KT 22/18 A3002 RMK A01 T02160182  RH  081%=      5-min Rain = 0
KCO2 261439Z 14014KT 22/18 A3002 RMK A01 T02160182  RH  081%=      5-min Rain = 0
KCO2 261440Z 16014G19KT 22/18 A3002 RMK A01 T02160182  RH  081%=      5-min Rain = 0
KCO2 261441Z 16015KT 22/18 A3002 RMK A01 T02160183  RH  081%=      5-min Rain = 0
KCO2 261442Z 15013KT 22/18 A3002 RMK A01 T02160183  RH  081%=      5-min Rain = 0
KCO2 261443Z 15015KT 22/18 A3002 RMK A01 T02170183  RH  081%=      5-min Rain = 0
KCO2 261444Z 15015KT 22/18 A3002 RMK A01 T02160182  RH  081%=      5-min Rain = 0
KCO2 261445Z 16018KT 22/18 A3002 RMK A01 T02170182  RH  081%=      5-min Rain = 0
KCO2 261446Z 15017KT 22/18 A3002 RMK A01 T02170182  RH  081%=      5-min Rain = 0
KCO2 261447Z 15017KT 22/18 A3002 RMK A01 T02170182  RH  080%=      5-min Rain = 0
KCO2 261448Z 15017KT 22/18 A3002 RMK A01 T02170182  RH  080%=      5-min Rain = 0
KCO2 261449Z 14015KT 22/18 A3002 RMK A01 T02170182  RH  080%=      5-min Rain = 0
KCO2 261450Z 14015KT 22/18 A3002 RMK A01 T02170183  RH  081%=      5-min Rain = 0
KCO2 261451Z 15015G20KT 22/18 A3001 RMK A01 T02170183  RH  081%=      5-min Rain = 0
KCO2 261452Z 15014KT 22/18 A3001 RMK A01 T02180182  RH  080%=      5-min Rain = 0
KCO2 261453Z 15013G18KT 22/18 A3001 RMK A01 T02180184  RH  081%=      5-min Rain = 0
KCO2 261454Z 15017KT 22/18 A3001 RMK A01 T02190183  RH  080%=      5-min Rain = 0
KCO2 261455Z 16017KT 22/18 A3001 RMK A01 T02200183  RH  079%=      5-min Rain = 0
KCO2 261456Z 16018KT 22/18 A3001 RMK A01 T02200183  RH  079%=      5-min Rain = 0
KCO2 261457Z 16013KT 22/18 A3001 RMK A01 T02210183  RH  079%=      5-min Rain = 0
KCO2 261458Z 15011KT 22/19 A3001 RMK A01 T02220186  RH  080%=      5-min Rain = 0
KCO2 261459Z 15013KT 22/19 A3001 RMK A01 T02240187  RH  079%=      5-min Rain = 0
KCO2 261500Z 15017KT 23/19 A3001 RMK A01 T02250185  RH  078%=      5-min Rain = 0
KCO2 261501Z 15015KT 23/19 A3001 RMK A01 T02250185  RH  078%=      5-min Rain = 0
KCO2 261502Z 15015KT 23/19 A3001 RMK A01 T02250185  RH  078%=      5-min Rain = 0
KCO2 261503Z 15016KT 23/19 A3001 RMK A01 T02250185  RH  078%=      5-min Rain = 0
KCO2 261504Z 16017G22KT 23/19 A3001 RMK A01 T02260185  RH  077%=      5-min Rain = 0
KCO2 261505Z 16013KT 23/18 A3001 RMK A01 T02260184  RH  077%=      5-min Rain = 0
KCO2 261506Z 17016KT 23/19 A3001 RMK A01 T02260186  RH  078%=      5-min Rain = 0
KCO2 261507Z 16014KT 23/19 A3001 RMK A01 T02280187  RH  078%=      5-min Rain = 0
KCO2 261508Z 16012KT 23/19 A3001 RMK A01 T02290187  RH  077%=      5-min Rain = 0
KCO2 261509Z 16011KT 23/19 A3002 RMK A01 T02290188  RH  078%=      5-min Rain = 0
KCO2 261510Z 16013KT 23/19 A3002 RMK A01 T02290188  RH  077%=      5-min Rain = 0
KCO2 261511Z 17012KT 23/19 A3001 RMK A01 T02290187  RH  077%=      5-min Rain = 0
KCO2 261512Z 17013KT 23/19 A3002 RMK A01 T02280187  RH  078%=      5-min Rain = 0
KCO2 261513Z 17013KT 23/19 A3002 RMK A01 T02280186  RH  077%=      5-min Rain = 0
KCO2 261514Z 16015KT 23/19 A3002 RMK A01 T02280186  RH  077%=      5-min Rain = 0
KCO2 261515Z 16016KT 23/19 A3002 RMK A01 T02270185  RH  077%=      5-min Rain = 0
KCO2 261516Z 16015KT 23/19 A3002 RMK A01 T02260186  RH  078%=      5-min Rain = 0
KCO2 261517Z 16016KT 23/19 A3002 RMK A01 T02260186  RH  078%=      5-min Rain = 0
KCO2 261518Z 17020G25KT 23/19 A3001 RMK A01 T02250185  RH  078%=      5-min Rain = 0
KCO2 261519Z 16017KT 22/18 A3001 RMK A01 T02240184  RH  078%=      5-min Rain = 0
KCO2 261520Z 16015KT 22/18 A3001 RMK A01 T02230184  RH  079%=      5-min Rain = 0
KCO2 261521Z 17013KT 22/19 A3001 RMK A01 T02230185  RH  079%=      5-min Rain = 0
KCO2 261522Z 16016KT 22/19 A3001 RMK A01 T02230185  RH  079%=      5-min Rain = 0
KCO2 261523Z 16016G21KT 22/19 A3001 RMK A01 T02240185  RH  079%=      5-min Rain = 0
KCO2 261524Z 16017G22KT 22/19 A3001 RMK A01 T02240185  RH  078%=      5-min Rain = 0
KCO2 261525Z 16018KT 23/19 A3001 RMK A01 T02250185  RH  078%=      5-min Rain = 0
KCO2 261526Z 17017KT 23/19 A3001 RMK A01 T02250185  RH  078%=      5-min Rain = 0
KCO2 261527Z 17014KT 23/19 A3001 RMK A01 T02250186  RH  078%=      5-min Rain = 0
KCO2 261528Z 16019KT 23/19 A3001 RMK A01 T02260186  RH  078%=      5-min Rain = 0
KCO2 261529Z 17017KT 23/19 A3001 RMK A01 T02260186  RH  078%=      5-min Rain = 0
KCO2 261530Z 17017KT 23/19 A3001 RMK A01 T02250185  RH  078%=      5-min Rain = 0
KCO2 261531Z 17015KT 23/19 A3002 RMK A01 T02250186  RH  079%=      5-min Rain = 0
KCO2 261532Z 16019KT 23/19 A3001 RMK A01 T02250186  RH  079%=      5-min Rain = 0
KCO2 261533Z 17015KT 23/19 A3001 RMK A01 T02250186  RH  078%=      5-min Rain = 0
KCO2 261534Z 18018KT 23/19 A3001 RMK A01 T02260186  RH  078%=      5-min Rain = 0
KCO2 261535Z 17014G19KT 23/19 A3001 RMK A01 T02260187  RH  078%=      5-min Rain = 0
KCO2 261536Z 17014KT 23/19 A3001 RMK A01 T02280188  RH  078%=      5-min Rain = 0
KCO2 261537Z 16014KT 23/19 A3001 RMK A01 T02280188  RH  078%=      5-min Rain = 0
KCO2 261538Z 15012KT 23/19 A3001 RMK A01 T02290188  RH  078%=      5-min Rain = 0
KCO2 261539Z 16014KT 23/19 A3001 RMK A01 T02290188  RH  078%=      5-min Rain = 0
KCO2 261540Z 16014KT 23/19 A3001 RMK A01 T02300189  RH  078%=      5-min Rain = 0
KCO2 261541Z 16015KT 23/19 A3001 RMK A01 T02300188  RH  077%=      5-min Rain = 0
KCO2 261542Z 17016KT 23/19 A3001 RMK A01 T02290187  RH  077%=      5-min Rain = 0
KCO2 261543Z 17013KT 23/19 A3001 RMK A01 T02280187  RH  078%=      5-min Rain = 0
KCO2 261544Z 17014KT 23/19 A3001 RMK A01 T02280188  RH  078%=      5-min Rain = 0
KCO2 261545Z 15013KT 23/19 A3001 RMK A01 T02290189  RH  078%=      5-min Rain = 0
KCO2 261546Z 15015KT 23/19 A3001 RMK A01 T02290188  RH  078%=      5-min Rain = 0
KCO2 261547Z 16014KT 23/19 A3001 RMK A01 T02290188  RH  078%=      5-min Rain = 0
KCO2 261548Z 16014KT 23/19 A3001 RMK A01 T02290188  RH  077%=      5-min Rain = 0
KCO2 261549Z 16013G18KT 23/19 A3001 RMK A01 T02290188  RH  078%=      5-min Rain = 0
KCO2 261550Z 16015KT 23/19 A3002 RMK A01 T02300188  RH  078%=      5-min Rain = 0
KCO2 261551Z 17013KT 23/19 A3002 RMK A01 T02290188  RH  077%=      5-min Rain = 0
KCO2 261552Z 17011KT 23/19 A3001 RMK A01 T02290188  RH  078%=      5-min Rain = 0
KCO2 261553Z 16010KT 23/19 A3002 RMK A01 T02290189  RH  078%=      5-min Rain = 0
KCO2 261554Z 17010G15KT 23/19 A3002 RMK A01 T02290190  RH  079%=      5-min Rain = 0
KCO2 261555Z 17012G17KT 23/19 A3002 RMK A01 T02300190  RH  078%=      5-min Rain = 0
KCO2 261556Z 17012KT 23/19 A3002 RMK A01 T02300188  RH  077%=      5-min Rain = 0
KCO2 261557Z 16009KT 23/19 A3002 RMK A01 T02300190  RH  078%=      5-min Rain = 0
KCO2 261558Z 15009G14KT 23/19 A3002 RMK A01 T02300190  RH  078%=      5-min Rain = 0
KCO2 261559Z 16012KT 23/19 A3002 RMK A01 T02300190  RH  078%=      5-min Rain = 0
KCO2 261600Z 16013KT 23/19 A3002 RMK A01 T02300189  RH  078%=      5-min Rain = 0
KCO2 261601Z 16013KT 23/19 A3002 RMK A01 T02300188  RH  077%=      5-min Rain = 0
KCO2 261602Z 17013KT 23/19 A3002 RMK A01 T02290189  RH  078%=      5-min Rain = 0
KCO2 261603Z 17014KT 23/19 A3002 RMK A01 T02290188  RH  078%=      5-min Rain = 0
KCO2 261604Z 15012KT 23/19 A3002 RMK A01 T02290189  RH  078%=      5-min Rain = 0
KCO2 261605Z 16010KT 23/19 A3001 RMK A01 T02290189  RH  078%=      5-min Rain = 0
KCO2 261606Z 17012KT 23/19 A3001 RMK A01 T02300190  RH  078%=      5-min Rain = 0
KCO2 261607Z 16011KT 23/19 A3001 RMK A01 T02310190  RH  078%=      5-min Rain = 0
KCO2 261608Z 17014KT 23/19 A3001 RMK A01 T02310189  RH  077%=      5-min Rain = 0
KCO2 261609Z 16013KT 23/19 A3002 RMK A01 T02300189  RH  077%=      5-min Rain = 0
KCO2 261610Z 17015KT 23/19 A3001 RMK A01 T02290189  RH  078%=      5-min Rain = 0
KCO2 261611Z 17016KT 23/19 A3001 RMK A01 T02290188  RH  077%=      5-min Rain = 0
KCO2 261612Z 17012KT 23/19 A3001 RMK A01 T02280187  RH  078%=      5-min Rain = 0
KCO2 261613Z 16011KT 23/19 A3001 RMK A01 T02280190  RH  079%=      5-min Rain = 0
KCO2 261614Z 16013KT 23/19 A3001 RMK A01 T02280189  RH  078%=      5-min Rain = 0
KCO2 261615Z 16012G17KT 23/19 A3001 RMK A01 T02290190  RH  078%=      5-min Rain = 0
KCO2 261616Z 15015KT 23/19 A3001 RMK A01 T02300189  RH  078%=      5-min Rain = 0
KCO2 261617Z 15016KT 23/19 A3001 RMK A01 T02300188  RH  077%=      5-min Rain = 0
KCO2 261618Z 16016KT 23/19 A3002 RMK A01 T02300188  RH  077%=      5-min Rain = 0
KCO2 261619Z 16016KT 23/19 A3002 RMK A01 T02290188  RH  078%=      5-min Rain = 0
KCO2 261620Z 17014KT 23/19 A3002 RMK A01 T02290189  RH  078%=      5-min Rain = 0
KCO2 261621Z 16013KT 23/19 A3002 RMK A01 T02290189  RH  078%=      5-min Rain = 0
KCO2 261622Z 16015KT 23/19 A3002 RMK A01 T02290188  RH  078%=      5-min Rain = 0
KCO2 261623Z 16014KT 23/19 A3001 RMK A01 T02290188  RH  077%=      5-min Rain = 0
KCO2 261624Z 16014KT 23/19 A3001 RMK A01 T02290189  RH  078%=      5-min Rain = 0
KCO2 261625Z 16016KT 23/19 A3001 RMK A01 T02300189  RH  078%=      5-min Rain = 0
KCO2 261626Z 16016KT 23/19 A3001 RMK A01 T02300188  RH  077%=      5-min Rain = 0
KCO2 261627Z 16014G21KT 23/19 A3001 RMK A01 T02300188  RH  077%=      5-min Rain = 0
KCO2 261628Z 16014KT 23/19 A3001 RMK A01 T02300189  RH  078%=      5-min Rain = 0
KCO2 261629Z 16012KT 23/19 A3001 RMK A01 T02300189  RH  078%=      5-min Rain = 0
KCO2 261630Z 17016KT 23/19 A3001 RMK A01 T02300189  RH  078%=      5-min Rain = 0
KCO2 261631Z 17012KT 23/19 A3001 RMK A01 T02300189  RH  078%=      5-min Rain = 0
KCO2 261632Z 17014KT 23/19 A3002 RMK A01 T02300189  RH  078%=      5-min Rain = 0
KCO2 261633Z 16013KT 23/19 A3001 RMK A01 T02310189  RH  078%=      5-min Rain = 0
KCO2 261634Z 17013KT 23/19 A3002 RMK A01 T02300190  RH  078%=      5-min Rain = 0
KCO2 261635Z 17013G18KT 23/19 A3002 RMK A01 T02300190  RH  078%=      5-min Rain = 0
KCO2 261636Z 17014KT 23/19 A3002 RMK A01 T02300190  RH  078%=      5-min Rain = 0
KCO2 261637Z 17012KT 23/19 A3002 RMK A01 T02300190  RH  078%=      5-min Rain = 0
KCO2 261638Z 17010KT 23/19 A3002 RMK A01 T02300191  RH  079%=      5-min Rain = 0
KCO2 261639Z 17009KT 23/19 A3002 RMK A01 T02310192  RH  079%=      5-min Rain = 0
KCO2 261640Z 17011KT 23/19 A3002 RMK A01 T02310192  RH  078%=      5-min Rain = 0
KCO2 261641Z 17012KT 23/19 A3002 RMK A01 T02320192  RH  078%=      5-min Rain = 0
KCO2 261642Z 18012KT 23/19 A3002 RMK A01 T02320191  RH  078%=      5-min Rain = 0
KCO2 261643Z 17014KT 23/19 A3002 RMK A01 T02320191  RH  077%=      5-min Rain = 0
KCO2 261644Z 17012KT 23/19 A3002 RMK A01 T02320191  RH  077%=      5-min Rain = 0
KCO2 261645Z 18011KT 23/19 A3002 RMK A01 T02330192  RH  078%=      5-min Rain = 0
KCO2 261646Z 18015KT 23/19 A3002 RMK A01 T02330192  RH  077%=      5-min Rain = 0
KCO2 261647Z 18014KT 23/19 A3002 RMK A01 T02330190  RH  077%=      5-min Rain = 0
KCO2 261648Z 18015KT 23/19 A3002 RMK A01 T02330191  RH  077%=      5-min Rain = 0
KCO2 261649Z 18017KT 23/19 A3002 RMK A01 T02330191  RH  077%=      5-min Rain = 0
KCO2 261650Z 18015KT 23/19 A3002 RMK A01 T02330190  RH  077%=      5-min Rain = 0
KCO2 261651Z 18014KT 23/19 A3002 RMK A01 T02340191  RH  077%=      5-min Rain = 0
KCO2 261652Z 17014KT 23/19 A3002 RMK A01 T02340191  RH  077%=      5-min Rain = 0
KCO2 261653Z 17015KT 23/19 A3002 RMK A01 T02340191  RH  077%=      5-min Rain = 0
KCO2 261654Z 17013KT 24/19 A3002 RMK A01 T02350191  RH  076%=      5-min Rain = 0
KCO2 261655Z 18015G20KT 24/19 A3002 RMK A01 T02350192  RH  077%=      5-min Rain = 0
KCO2 261656Z 17015G20KT 24/19 A3002 RMK A01 T02350191  RH  076%=      5-min Rain = 0
KCO2 261657Z 17015KT 24/19 A3002 RMK A01 T02350192  RH  077%=      5-min Rain = 0
KCO2 261658Z 17013KT 24/19 A3002 RMK A01 T02350191  RH  077%=      5-min Rain = 0
KCO2 261659Z 17011KT 24/19 A3002 RMK A01 T02360193  RH  077%=      5-min Rain = 0
KCO2 261700Z 18011KT 24/19 A3002 RMK A01 T02360193  RH  077%=      5-min Rain = 0
KCO2 261701Z 17012G18KT 24/19 A3002 RMK A01 T02360194  RH  077%=      5-min Rain = 0
KCO2 261702Z 17014KT 24/19 A3002 RMK A01 T02370193  RH  076%=      5-min Rain = 0
KCO2 261703Z 17013KT 24/19 A3002 RMK A01 T02360192  RH  076%=      5-min Rain = 0
KCO2 261704Z 17012KT 24/19 A3002 RMK A01 T02370194  RH  077%=      5-min Rain = 0
KCO2 261705Z 17012KT 24/19 A3002 RMK A01 T02370193  RH  077%=      5-min Rain = 0
KCO2 261706Z 17010KT 24/19 A3002 RMK A01 T02370194  RH  077%=      5-min Rain = 0
KCO2 261707Z 17009KT 24/20 A3002 RMK A01 T02370195  RH  077%=      5-min Rain = 0
KCO2 261708Z 17010KT 24/20 A3002 RMK A01 T02380196  RH  077%=      5-min Rain = 0
KCO2 261709Z 17012G17KT 24/20 A3002 RMK A01 T02380196  RH  077%=      5-min Rain = 0
KCO2 261710Z 17013KT 24/19 A3002 RMK A01 T02390194  RH  076%=      5-min Rain = 0
KCO2 261711Z 16014KT 24/19 A3002 RMK A01 T02390194  RH  076%=      5-min Rain = 0
KCO2 261712Z 17012KT 24/19 A3002 RMK A01 T02390193  RH  076%=      5-min Rain = 0
KCO2 261713Z 18013KT 24/19 A3002 RMK A01 T02380194  RH  076%=      5-min Rain = 0
KCO2 261714Z 17015KT 24/19 A3001 RMK A01 T02380194  RH  076%=      5-min Rain = 0
KCO2 261715Z 17015KT 24/19 A3001 RMK A01 T02380193  RH  076%=      5-min Rain = 0
KCO2 261716Z 17014KT 24/19 A3002 RMK A01 T02380193  RH  076%=      5-min Rain = 0
KCO2 261717Z 17014KT 24/19 A3002 RMK A01 T02390194  RH  076%=      5-min Rain = 0
KCO2 261718Z 17018KT 24/19 A3002 RMK A01 T02400194  RH  075%=      5-min Rain = 0
KCO2 261719Z 16017KT 24/19 A3002 RMK A01 T02390192  RH  075%=      5-min Rain = 0
KCO2 261720Z 16015KT 24/19 A3002 RMK A01 T02400193  RH  075%=      5-min Rain = 0
KCO2 261721Z 17016KT 24/19 A3001 RMK A01 T02400193  RH  075%=      5-min Rain = 0
KCO2 261722Z 18015KT 24/19 A3001 RMK A01 T02400194  RH  075%=      5-min Rain = 0
KCO2 261723Z 17015KT 24/19 A3001 RMK A01 T02400193  RH  075%=      5-min Rain = 0
KCO2 261724Z 17017KT 24/19 A3001 RMK A01 T02400194  RH  075%=      5-min Rain = 0
KCO2 261725Z 17016KT 24/19 A3001 RMK A01 T02400193  RH  075%=      5-min Rain = 0
KCO2 261726Z 17018G23KT 24/19 A3001 RMK A01 T02410193  RH  075%=      5-min Rain = 0
KCO2 261727Z 18015KT 24/19 A3001 RMK A01 T02420194  RH  074%=      5-min Rain = 0
KCO2 261728Z 18019KT 24/20 A3001 RMK A01 T02420195  RH  075%=      5-min Rain = 0
KCO2 261729Z 17015KT 24/20 A3001 RMK A01 T02430195  RH  074%=      5-min Rain = 0
KCO2 261730Z 17012KT 24/20 A3001 RMK A01 T02440196  RH  075%=      5-min Rain = 0
KCO2 261731Z 16013KT 25/20 A3001 RMK A01 T02450198  RH  075%=      5-min Rain = 0
KCO2 261732Z 16014KT 25/20 A3001 RMK A01 T02470198  RH  074%=      5-min Rain = 0
KCO2 261733Z 17013KT 25/20 A3001 RMK A01 T02480199  RH  074%=      5-min Rain = 0
KCO2 261734Z 17013KT 25/20 A3001 RMK A01 T02490198  RH  073%=      5-min Rain = 0
KCO2 261735Z 16016KT 25/20 A3001 RMK A01 T02500199  RH  073%=      5-min Rain = 0
KCO2 261736Z 16017G24KT 25/20 A3001 RMK A01 T02510197  RH  072%=      5-min Rain = 0
KCO2 261737Z 16020KT 25/20 A3001 RMK A01 T02510196  RH  071%=      5-min Rain = 0
KCO2 261738Z 17014G21KT 25/20 A3001 RMK A01 T02500197  RH  072%=      5-min Rain = 0
KCO2 261739Z 16016KT 25/20 A3001 RMK A01 T02520199  RH  073%=      5-min Rain = 0
KCO2 261740Z 16018KT 25/20 A3001 RMK A01 T02530197  RH  071%=      5-min Rain = 0
KCO2 261741Z 16017G22KT 25/20 A3001 RMK A01 T02530196  RH  071%=      5-min Rain = 0
KCO2 261742Z 16016G22KT 25/20 A3001 RMK A01 T02510197  RH  072%=      5-min Rain = 0
KCO2 261743Z 17016KT 25/20 A3001 RMK A01 T02510198  RH  073%=      5-min Rain = 0
KCO2 261744Z 17019KT 25/20 A3001 RMK A01 T02510197  RH  072%=      5-min Rain = 0
KCO2 261745Z 17019KT 25/20 A30 RMK A01 T02510197  RH  072%=      5-min Rain = 0
KCO2 261746Z 17017G22KT 25/20 A30 RMK A01 T02510198  RH  073%=      5-min Rain = 0
KCO2 261747Z 18015KT 25/20 A30 RMK A01 T02520199  RH  073%=      5-min Rain = 0
KCO2 261748Z 17015KT 25/20 A30 RMK A01 T02540200  RH  072%=      5-min Rain = 0
KCO2 261749Z 17018KT 26/20 A30 RMK A01 T02550199  RH  071%=      5-min Rain = 0
KCO2 261750Z 16015G22KT 26/20 A30 RMK A01 T02550200  RH  072%=      5-min Rain = 0
KCO2 261751Z 16017KT 26/20 A30 RMK A01 T02550199  RH  071%=      5-min Rain = 0
KCO2 261752Z 16019KT 26/20 A30 RMK A01 T02550198  RH  071%=      5-min Rain = 0
KCO2 261753Z 16019KT 25/20 A30 RMK A01 T02530197  RH  071%=      5-min Rain = 0
KCO2 261754Z 16018G23KT 25/20 A30 RMK A01 T02520198  RH  072%=      5-min Rain = 0
KCO2 261755Z 17016G21KT 25/20 A30 RMK A01 T02520198  RH  072%=      5-min Rain = 0
KCO2 261756Z 17018G23KT 25/20 A30 RMK A01 T02530198  RH  072%=      5-min Rain = 0
KCO2 261757Z 18020G26KT 25/20 A30 RMK A01 T02530198  RH  072%=      5-min Rain = 0
KCO2 261758Z 17017KT 25/20 A30 RMK A01 T02530199  RH  072%=      5-min Rain = 0
KCO2 261759Z 17019KT 25/20 A30 RMK A01 T02530197  RH  072%=      5-min Rain = 0
KCO2 261800Z 17019G25KT 25/20 A30 RMK A01 T02520197  RH  072%=      5-min Rain = 0
KCO2 261801Z 16018KT 25/20 A30 RMK A01 T02520199  RH  072%=      5-min Rain = 0
KCO2 261802Z 16018KT 25/20 A30 RMK A01 T02530198  RH  072%=      5-min Rain = 0
KCO2 261803Z 16020KT 25/20 A30 RMK A01 T02530198  RH  071%=      5-min Rain = 0
KCO2 261804Z 17020G25KT 25/20 A30 RMK A01 T02530197  RH  071%=      5-min Rain = 0
KCO2 261805Z 17014KT 25/20 A30 RMK A01 T02540201  RH  072%=      5-min Rain = 0
KCO2 261806Z 17018KT 26/20 A30 RMK A01 T02560201  RH  071%=      5-min Rain = 0
KCO2 261807Z 17018KT 26/20 A30 RMK A01 T02570200  RH  070%=      5-min Rain = 0
KCO2 261808Z 17015KT 26/20 A30 RMK A01 T02580201  RH  071%=      5-min Rain = 0
KCO2 261809Z 18016KT 26/20 A30 RMK A01 T02590200  RH  070%=      5-min Rain = 0
KCO2 261810Z 17014G22KT 26/20 A30 RMK A01 T02590202  RH  071%=      5-min Rain = 0
KCO2 261811Z 17016G21KT 26/20 A30 RMK A01 T02590201  RH  071%=      5-min Rain = 0
KCO2 261812Z 16016KT 26/20 A30 RMK A01 T02590203  RH  071%=      5-min Rain = 0
KCO2 261813Z 16015KT 26/20 A30 RMK A01 T02600204  RH  071%=      5-min Rain = 0
KCO2 261814Z 17019G24KT 26/21 A30 RMK A01 T02630205  RH  070%=      5-min Rain = 0
KCO2 261815Z 17019G24KT 26/20 A30 RMK A01 T02640200  RH  068%=      5-min Rain = 0
KCO2 261816Z 16015KT 26/20 A30 RMK A01 T02600201  RH  070%=      5-min Rain = 0
KCO2 261817Z 16016G21KT 26/20 A30 RMK A01 T02580200  RH  070%=      5-min Rain = 0
KCO2 261818Z 15016G21KT 26/20 A30 RMK A01 T02570201  RH  071%=      5-min Rain = 0
KCO2 261819Z 15019KT 26/20 A30 RMK A01 T02560199  RH  071%=      5-min Rain = 0
KCO2 261820Z 16018KT 25/20 A30 RMK A01 T02540199  RH  071%=      5-min Rain = 0
KCO2 261821Z 17018KT 25/20 A30 RMK A01 T02530198  RH  071%=      5-min Rain = 0
KCO2 261822Z 17017G22KT 25/20 A30 RMK A01 T02520198  RH  072%=      5-min Rain = 0
KCO2 261823Z 18017G22KT 25/20 A30 RMK A01 T02510197  RH  072%=      5-min Rain = 0
KCO2 261824Z 17018KT 25/20 A30 RMK A01 T02510198  RH  072%=      5-min Rain = 0
KCO2 261825Z 17014KT 25/20 A30 RMK A01 T02520198  RH  072%=      5-min Rain = 0
KCO2 261826Z 18015G22KT 25/20 A30 RMK A01 T02520201  RH  073%=      5-min Rain = 0
KCO2 261827Z 17019KT 25/20 A30 RMK A01 T02530198  RH  072%=      5-min Rain = 0
KCO2 261828Z 17018KT 25/20 A30 RMK A01 T02530198  RH  072%=      5-min Rain = 0
KCO2 261829Z 17017KT 25/20 A30 RMK A01 T02530198  RH  071%=      5-min Rain = 0
KCO2 261830Z 17017KT 25/20 A30 RMK A01 T02530199  RH  072%=      5-min Rain = 0
KCO2 261831Z 17017KT 25/20 A30 RMK A01 T02530199  RH  072%=      5-min Rain = 0
KCO2 261832Z 18019G24KT 25/20 A30 RMK A01 T02540199  RH  072%=      5-min Rain = 0
KCO2 261833Z 17019G25KT 25/20 A2999 RMK A01 T02540197  RH  071%=      5-min Rain = 0
KCO2 261834Z 17014KT 25/20 A2999 RMK A01 T02540199  RH  071%=      5-min Rain = 0
KCO2 261835Z 16014KT 26/20 A2999 RMK A01 T02570203  RH  072%=      5-min Rain = 0
KCO2 261836Z 16015KT 26/20 A2999 RMK A01 T02590202  RH  071%=      5-min Rain = 0
KCO2 261837Z 16016KT 26/20 A2999 RMK A01 T02600203  RH  071%=      5-min Rain = 0
KCO2 261838Z 16010KT 26/21 A2999 RMK A01 T02600205  RH  072%=      5-min Rain = 0
KCO2 261839Z 16015G20KT 26/21 A2999 RMK A01 T02610205  RH  071%=      5-min Rain = 0
KCO2 261840Z 15015KT 26/20 A2999 RMK A01 T02620203  RH  070%=      5-min Rain = 0
KCO2 261841Z 16015KT 26/20 A2999 RMK A01 T02620204  RH  070%=      5-min Rain = 0
KCO2 261842Z 16012KT 26/20 A2999 RMK A01 T02630204  RH  070%=      5-min Rain = 0
KCO2 261843Z 16016KT 26/20 A2999 RMK A01 T02640204  RH  070%=      5-min Rain = 0
KCO2 261844Z 17018KT 26/20 A2999 RMK A01 T02640201  RH  068%=      5-min Rain = 0
KCO2 261845Z 16016KT 26/20 A2999 RMK A01 T02620201  RH  069%=      5-min Rain = 0
KCO2 261846Z 17014KT 26/20 A2999 RMK A01 T02610201  RH  070%=      5-min Rain = 0
KCO2 261847Z 17012KT 26/20 A2999 RMK A01 T02600202  RH  071%=      5-min Rain = 0
KCO2 261848Z 16012KT 26/21 A2999 RMK A01 T02600205  RH  072%=      5-min Rain = 0
KCO2 261849Z 15012KT 26/20 A2999 RMK A01 T02620204  RH  071%=      5-min Rain = 0
KCO2 261850Z 17013KT 26/21 A2999 RMK A01 T02640206  RH  071%=      5-min Rain = 0
KCO2 261851Z 17013KT 27/21 A2999 RMK A01 T02660208  RH  070%=      5-min Rain = 0
KCO2 261852Z 17014KT 27/21 A2999 RMK A01 T02670205  RH  069%=      5-min Rain = 0
KCO2 261853Z 17017KT 27/20 A2999 RMK A01 T02660202  RH  068%=      5-min Rain = 0
KCO2 261854Z 18017KT 26/20 A2999 RMK A01 T02640203  RH  069%=      5-min Rain = 0
KCO2 261855Z 18011KT 26/20 A2999 RMK A01 T02630203  RH  070%=      5-min Rain = 0
KCO2 261856Z 17010G15KT 26/21 A2999 RMK A01 T02630206  RH  071%=      5-min Rain = 0
KCO2 261857Z 17013KT 26/21 A2999 RMK A01 T02640206  RH  070%=      5-min Rain = 0
KCO2 261858Z 17013KT 26/21 A2999 RMK A01 T02640206  RH  070%=      5-min Rain = 0
KCO2 261859Z 17014KT 26/20 A2999 RMK A01 T02630204  RH  070%=      5-min Rain = 0
KCO2 261900Z 16016KT 26/20 A2999 RMK A01 T02610202  RH  070%=      5-min Rain = 0
KCO2 261901Z 16016KT 26/20 A2999 RMK A01 T02600201  RH  070%=      5-min Rain = 0
KCO2 261902Z 16012KT 26/20 A2999 RMK A01 T02600203  RH  071%=      5-min Rain = 0
KCO2 261903Z 17014KT 26/20 A2999 RMK A01 T02600204  RH  071%=      5-min Rain = 0
KCO2 261904Z 16015KT 26/20 A2999 RMK A01 T02610203  RH  070%=      5-min Rain = 0
KCO2 261905Z 15012KT 26/20 A2999 RMK A01 T02610204  RH  071%=      5-min Rain = 0
KCO2 261906Z 15014G19KT 26/21 A2999 RMK A01 T02600206  RH  072%=      5-min Rain = 0
KCO2 261907Z 15011KT 26/21 A2999 RMK A01 T02610205  RH  071%=      5-min Rain = 0
KCO2 261908Z 15012KT 26/21 A2999 RMK A01 T02610206  RH  072%=      5-min Rain = 0
KCO2 261909Z 16018KT 26/20 A2999 RMK A01 T02610204  RH  071%=      5-min Rain = 0
KCO2 261910Z 16017KT 26/20 A2999 RMK A01 T02610200  RH  069%=      5-min Rain = 0
KCO2 261911Z 16018G26KT 26/20 A2999 RMK A01 T02580200  RH  070%=      5-min Rain = 0
KCO2 261912Z 16015KT 26/20 A2999 RMK A01 T02580200  RH  071%=      5-min Rain = 0
KCO2 261913Z 16016KT 26/20 A2999 RMK A01 T02580202  RH  071%=      5-min Rain = 0
KCO2 261914Z 16014KT 26/20 A2998 RMK A01 T02590203  RH  071%=      5-min Rain = 0
KCO2 261915Z 16015KT 26/20 A2998 RMK A01 T02610203  RH  070%=      5-min Rain = 0
KCO2 261916Z 17014G20KT 26/20 A2998 RMK A01 T02620204  RH  071%=      5-min Rain = 0
KCO2 261917Z 17016KT 26/20 A2998 RMK A01 T02640204  RH  070%=      5-min Rain = 0
KCO2 261918Z 17016KT 27/20 A2998 RMK A01 T02650202  RH  068%=      5-min Rain = 0
KCO2 261919Z 17018KT 27/20 A2998 RMK A01 T02650202  RH  068%=      5-min Rain = 0
KCO2 261920Z 18020KT 27/20 A2998 RMK A01 T02650202  RH  068%=      5-min Rain = 0
KCO2 261921Z 16018KT 26/20 A2998 RMK A01 T02640201  RH  069%=      5-min Rain = 0
KCO2 261922Z 17017KT 26/20 A2998 RMK A01 T02630201  RH  069%=      5-min Rain = 0
KCO2 261923Z 17017KT 26/20 A2998 RMK A01 T02630201  RH  069%=      5-min Rain = 0
KCO2 261924Z 17019G24KT 26/20 A2998 RMK A01 T02640200  RH  068%=      5-min Rain = 0
KCO2 261925Z 16019KT 27/20 A2998 RMK A01 T02650200  RH  068%=      5-min Rain = 0
KCO2 261926Z 16017KT 27/20 A2998 RMK A01 T02650199  RH  067%=      5-min Rain = 0
KCO2 261927Z 16016KT 27/20 A2998 RMK A01 T02650201  RH  068%=      5-min Rain = 0
KCO2 261928Z 17014G19KT 27/20 A2998 RMK A01 T02650202  RH  068%=      5-min Rain = 0
KCO2 261929Z 16019KT 27/20 A2998 RMK A01 T02650204  RH  069%=      5-min Rain = 0
KCO2 261930Z 16018KT 27/20 A2998 RMK A01 T02650204  RH  069%=      5-min Rain = 0
KCO2 261931Z 16017KT 26/20 A2998 RMK A01 T02640203  RH  069%=      5-min Rain = 0
KCO2 261932Z 16015KT 26/20 A2998 RMK A01 T02640204  RH  070%=      5-min Rain = 0
KCO2 261933Z 16017KT 27/20 A2998 RMK A01 T02650203  RH  069%=      5-min Rain = 0
KCO2 261934Z 16018KT 27/20 A2998 RMK A01 T02650203  RH  069%=      5-min Rain = 0
KCO2 261935Z 16015KT 26/20 A2998 RMK A01 T02640204  RH  069%=      5-min Rain = 0
KCO2 261936Z 16015KT 27/20 A2998 RMK A01 T02650204  RH  069%=      5-min Rain = 0
KCO2 261937Z 16014KT 27/20 A2998 RMK A01 T02650204  RH  069%=      5-min Rain = 0
KCO2 261938Z 16013G18KT 27/21 A2998 RMK A01 T02660206  RH  070%=      5-min Rain = 0
KCO2 261939Z 15018KT 27/20 A2998 RMK A01 T02660204  RH  069%=      5-min Rain = 0
KCO2 261940Z 16015G21KT 27/21 A2998 RMK A01 T02660205  RH  069%=      5-min Rain = 0
KCO2 261941Z 16017KT 27/20 A2998 RMK A01 T02650203  RH  069%=      5-min Rain = 0
KCO2 261942Z 17015KT 26/20 A2999 RMK A01 T02640202  RH  069%=      5-min Rain = 0
KCO2 261943Z 18013KT 26/20 A2999 RMK A01 T02630204  RH  070%=      5-min Rain = 0
KCO2 261944Z 17014KT 26/21 A2999 RMK A01 T02620206  RH  071%=      5-min Rain = 0
KCO2 261945Z 17017G22KT 26/20 A2999 RMK A01 T02630204  RH  070%=      5-min Rain = 0
KCO2 261946Z 17016G21KT 26/20 A2999 RMK A01 T02640204  RH  070%=      5-min Rain = 0
KCO2 261947Z 17017KT 26/20 A2999 RMK A01 T02640203  RH  069%=      5-min Rain = 0
KCO2 261948Z 17014KT 26/20 A2999 RMK A01 T02640204  RH  070%=      5-min Rain = 0
KCO2 261949Z 17016G21KT 26/20 A2999 RMK A01 T02640204  RH  070%=      5-min Rain = 0
KCO2 261950Z 17017G23KT 26/20 A2999 RMK A01 T02640202  RH  069%=      5-min Rain = 0
KCO2 261951Z 16018KT 26/20 A2999 RMK A01 T02630201  RH  069%=      5-min Rain = 0
KCO2 261952Z 16015KT 26/20 A2999 RMK A01 T02620200  RH  069%=      5-min Rain = 0
KCO2 261953Z 16014KT 26/20 A2999 RMK A01 T02610201  RH  070%=      5-min Rain = 0
KCO2 261954Z 16012KT 26/20 A2999 RMK A01 T02600202  RH  070%=      5-min Rain = 0
KCO2 261955Z 18011KT 26/20 A2999 RMK A01 T02600204  RH  071%=      5-min Rain = 0
KCO2 261956Z 18014G20KT 26/20 A2999 RMK A01 T02600204  RH  071%=      5-min Rain = 0
KCO2 261957Z 18016KT 26/20 A2999 RMK A01 T02610201  RH  069%=      5-min Rain = 0
KCO2 261958Z 18015KT 26/20 A2999 RMK A01 T02600202  RH  070%=      5-min Rain = 0
KCO2 261959Z 17015KT 26/20 A2999 RMK A01 T02600201  RH  070%=      5-min Rain = 0
KCO2 262000Z 17012KT 26/20 A2999 RMK A01 T02600203  RH  071%=      5-min Rain = 0
KCO2 262001Z 18014KT 26/20 A2999 RMK A01 T02600204  RH  071%=      5-min Rain = 0
KCO2 262002Z 17014KT 26/20 A2999 RMK A01 T02600202  RH  070%=      5-min Rain = 0
KCO2 262003Z 17015KT 26/20 A2999 RMK A01 T02600202  RH  070%=      5-min Rain = 0
KCO2 262004Z 18014KT 26/20 A2999 RMK A01 T02600203  RH  070%=      5-min Rain = 0
KCO2 262005Z 18012KT 26/20 A30 RMK A01 T02610204  RH  071%=      5-min Rain = 0
KCO2 262006Z 17011KT 26/20 A30 RMK A01 T02600204  RH  071%=      5-min Rain = 0
KCO2 262007Z 17010KT 26/21 A30 RMK A01 T02600205  RH  072%=      5-min Rain = 0
KCO2 262008Z 18014KT 26/21 A30 RMK A01 T02590205  RH  072%=      5-min Rain = 0
KCO2 262009Z 17011KT 26/20 A30 RMK A01 T02590204  RH  072%=      5-min Rain = 0
KCO2 262010Z 16014KT 26/20 A30 RMK A01 T02580204  RH  072%=      5-min Rain = 0
KCO2 262011Z 17014KT 26/20 A30 RMK A01 T02580203  RH  072%=      5-min Rain = 0
KCO2 262012Z 17013KT 26/20 A30 RMK A01 T02580204  RH  072%=      5-min Rain = 0
KCO2 262013Z 16016KT 26/20 A30 RMK A01 T02580203  RH  072%=      5-min Rain = 0
KCO2 262014Z 16015KT 26/20 A30 RMK A01 T02580202  RH  071%=      5-min Rain = 0
KCO2 262015Z 16014KT 26/20 A30 RMK A01 T02580202  RH  071%=      5-min Rain = 0
KCO2 262016Z 16016KT 26/20 A30 RMK A01 T02590202  RH  071%=      5-min Rain = 0
KCO2 262017Z 16015G20KT 26/20 A30 RMK A01 T02600202  RH  070%=      5-min Rain = 0
KCO2 262018Z 16012G17KT 26/20 A30 RMK A01 T02600204  RH  071%=      5-min Rain = 0
KCO2 262019Z 17015KT 26/20 A30 RMK A01 T02610204  RH  071%=      5-min Rain = 0
KCO2 262020Z 16015KT 26/20 A30 RMK A01 T02610202  RH  070%=      5-min Rain = 0
KCO2 262021Z 15012KT 26/20 A30 RMK A01 T02610203  RH  070%=      5-min Rain = 0
KCO2 262022Z 16011KT 26/20 A30 RMK A01 T02610204  RH  071%=      5-min Rain = 0
KCO2 262023Z 17011KT 26/21 A30 RMK A01 T02620206  RH  071%=      5-min Rain = 0
KCO2 262024Z 16013KT 26/21 A30 RMK A01 T02630205  RH  071%=      5-min Rain = 0
KCO2 262025Z 17012KT 26/20 A2999 RMK A01 T02630204  RH  070%=      5-min Rain = 0
KCO2 262026Z 17012KT 27/21 A2999 RMK A01 T02650206  RH  070%=      5-min Rain = 0
KCO2 262027Z 17012KT 27/21 A2999 RMK A01 T02680207  RH  069%=      5-min Rain = 0
KCO2 262028Z 17015KT 27/21 A2999 RMK A01 T02700208  RH  069%=      5-min Rain = 0
KCO2 262029Z 17013KT 27/21 A2999 RMK A01 T02710207  RH  068%=      5-min Rain = 0
KCO2 262030Z 17011KT 27/21 A2999 RMK A01 T02720207  RH  068%=      5-min Rain = 0
KCO2 262031Z 17015KT 27/21 A2999 RMK A01 T02720208  RH  068%=      5-min Rain = 0
KCO2 262032Z 17016KT 27/21 A2999 RMK A01 T02710206  RH  067%=      5-min Rain = 0
KCO2 262033Z 17014KT 27/20 A2999 RMK A01 T02710204  RH  067%=      5-min Rain = 0
KCO2 262034Z 16013G20KT 27/21 A2999 RMK A01 T02700206  RH  068%=      5-min Rain = 0
KCO2 262035Z 16016KT 27/20 A2999 RMK A01 T02700203  RH  067%=      5-min Rain = 0
KCO2 262036Z 17013KT 27/20 A2999 RMK A01 T02700204  RH  067%=      5-min Rain = 0
KCO2 262037Z 17011G16KT 27/21 A2999 RMK A01 T02700206  RH  068%=      5-min Rain = 0
KCO2 262038Z 17014G21KT 27/21 A2999 RMK A01 T02710207  RH  068%=      5-min Rain = 0
KCO2 262039Z 18015G20KT 27/20 A2999 RMK A01 T02720204  RH  066%=      5-min Rain = 0
KCO2 262040Z 18014KT 27/21 A2999 RMK A01 T02720205  RH  067%=      5-min Rain = 0
KCO2 262041Z 18014KT 27/20 A2999 RMK A01 T02730203  RH  066%=      5-min Rain = 0
KCO2 262042Z 18013KT 27/20 A2999 RMK A01 T02740204  RH  066%=      5-min Rain = 0
KCO2 262043Z 18016KT 28/21 A2999 RMK A01 T02760205  RH  066%=      5-min Rain = 0
KCO2 262044Z 18017KT 28/20 A2998 RMK A01 T02770203  RH  064%=      5-min Rain = 0
KCO2 262045Z 17016KT 28/20 A2998 RMK A01 T02770201  RH  064%=      5-min Rain = 0
KCO2 262046Z 17014KT 28/20 A2998 RMK A01 T02760203  RH  064%=      5-min Rain = 0
KCO2 262047Z 17013G18KT 28/21 A2998 RMK A01 T02760205  RH  065%=      5-min Rain = 0
KCO2 262048Z 17018KT 28/20 A2998 RMK A01 T02760202  RH  064%=      5-min Rain = 0
KCO2 262049Z 18018KT 28/20 A2998 RMK A01 T02760198  RH  063%=      5-min Rain = 0
KCO2 262050Z 17012KT 28/20 A2998 RMK A01 T02760202  RH  064%=      5-min Rain = 0
KCO2 262051Z 16010KT 28/21 A2998 RMK A01 T02770210  RH  067%=      5-min Rain = 0
KCO2 262052Z 15012KT 28/21 A2998 RMK A01 T02790212  RH  067%=      5-min Rain = 0
KCO2 262053Z 17011KT 28/21 A2997 RMK A01 T02800212  RH  066%=      5-min Rain = 0
KCO2 262054Z 16010KT 28/21 A2997 RMK A01 T02810210  RH  066%=      5-min Rain = 0
KCO2 262055Z 17010KT 28/21 A2997 RMK A01 T02810210  RH  066%=      5-min Rain = 0
KCO2 262056Z 15013KT 28/21 A2997 RMK A01 T02800210  RH  065%=      5-min Rain = 0
KCO2 262057Z 16014KT 28/21 A2997 RMK A01 T02790209  RH  066%=      5-min Rain = 0
KCO2 262058Z 15014G19KT 28/21 A2997 RMK A01 T02780210  RH  067%=      5-min Rain = 0
KCO2 262059Z 15016KT 28/21 A2997 RMK A01 T02770206  RH  065%=      5-min Rain = 0
KCO2 262100Z 14015KT 28/21 A2997 RMK A01 T02750208  RH  067%=      5-min Rain = 0
KCO2 262101Z 15014KT 27/21 A2997 RMK A01 T02740207  RH  067%=      5-min Rain = 0
KCO2 262102Z 15013KT 27/21 A2997 RMK A01 T02730208  RH  067%=      5-min Rain = 0
KCO2 262103Z 15015KT 27/21 A2997 RMK A01 T02720206  RH  067%=      5-min Rain = 0
KCO2 262104Z 15012KT 27/21 A2997 RMK A01 T02710206  RH  068%=      5-min Rain = 0
KCO2 262105Z 15014KT 27/21 A2998 RMK A01 T02710208  RH  069%=      5-min Rain = 0
KCO2 262106Z 15015KT 27/21 A2998 RMK A01 T02710206  RH  067%=      5-min Rain = 0
KCO2 262107Z 14015G20KT 27/21 A2998 RMK A01 T02710207  RH  068%=      5-min Rain = 0
KCO2 262108Z 14015KT 27/21 A2998 RMK A01 T02700207  RH  069%=      5-min Rain = 0
KCO2 262109Z 14017KT 27/21 A2998 RMK A01 T02680207  RH  069%=      5-min Rain = 0
KCO2 262110Z 14017KT 27/21 A2998 RMK A01 T02670207  RH  070%=      5-min Rain = 0
KCO2 262111Z 14014KT 27/21 A2998 RMK A01 T02660206  RH  070%=      5-min Rain = 0
KCO2 262112Z 14012KT 27/21 A2997 RMK A01 T02650208  RH  071%=      5-min Rain = 0
KCO2 262113Z 15011G17KT 27/21 A2997 RMK A01 T02650210  RH  072%=      5-min Rain = 0
KCO2 262114Z 15015G21KT 27/21 A2997 RMK A01 T02650207  RH  071%=      5-min Rain = 0
KCO2 262115Z 16013KT 26/21 A2997 RMK A01 T02640205  RH  070%=      5-min Rain = 0
KCO2 262116Z 15011KT 26/21 A2997 RMK A01 T02640206  RH  070%=      5-min Rain = 0
KCO2 262117Z 15013KT 26/21 A2997 RMK A01 T02640206  RH  071%=      5-min Rain = 0
KCO2 262118Z 15015KT 26/20 A2997 RMK A01 T02640204  RH  070%=      5-min Rain = 0
KCO2 262119Z 15013KT 26/20 A2997 RMK A01 T02640203  RH  069%=      5-min Rain = 0
KCO2 262120Z 17012KT 26/21 A2997 RMK A01 T02640205  RH  070%=      5-min Rain = 0
KCO2 262121Z 15014KT 26/20 A2997 RMK A01 T02640204  RH  070%=      5-min Rain = 0
KCO2 262122Z 15013KT 26/20 A2997 RMK A01 T02640204  RH  070%=      5-min Rain = 0
KCO2 262123Z 14013KT 26/21 A2997 RMK A01 T02640205  RH  070%=      5-min Rain = 0
KCO2 262124Z 15014KT 26/21 A2997 RMK A01 T02640205  RH  070%=      5-min Rain = 0
KCO2 262125Z 16016KT 27/20 A2997 RMK A01 T02650204  RH  069%=      5-min Rain = 0
KCO2 262126Z 15016KT 26/20 A2997 RMK A01 T02640203  RH  069%=      5-min Rain = 0
KCO2 262127Z 15017KT 27/20 A2997 RMK A01 T02650202  RH  069%=      5-min Rain = 0
KCO2 262128Z 15016KT 26/20 A2997 RMK A01 T02640202  RH  069%=      5-min Rain = 0
KCO2 262129Z 15015KT 26/20 A2997 RMK A01 T02640203  RH  069%=      5-min Rain = 0
KCO2 262130Z 15016KT 26/20 A2997 RMK A01 T02640203  RH  069%=      5-min Rain = 0
KCO2 262131Z 16014KT 26/20 A2997 RMK A01 T02640202  RH  069%=      5-min Rain = 0
KCO2 262132Z 15015KT 26/20 A2997 RMK A01 T02640203  RH  069%=      5-min Rain = 0
KCO2 262133Z 16017KT 27/20 A2997 RMK A01 T02650203  RH  068%=      5-min Rain = 0
KCO2 262134Z 16019KT 27/20 A2997 RMK A01 T02670202  RH  067%=      5-min Rain = 0
KCO2 262135Z 16016KT 27/20 A2997 RMK A01 T02670201  RH  067%=      5-min Rain = 0
KCO2 262136Z 16014KT 27/20 A2997 RMK A01 T02680203  RH  067%=      5-min Rain = 0
KCO2 262137Z 17014KT 27/20 A2997 RMK A01 T02680203  RH  068%=      5-min Rain = 0
KCO2 262138Z 16014G19KT 27/20 A2997 RMK A01 T02680202  RH  067%=      5-min Rain = 0
KCO2 262139Z 16011KT 27/20 A2997 RMK A01 T02680204  RH  068%=      5-min Rain = 0
KCO2 262140Z 17011KT 27/21 A2997 RMK A01 T02680205  RH  068%=      5-min Rain = 0
KCO2 262141Z 17012KT 27/20 A2997 RMK A01 T02680204  RH  068%=      5-min Rain = 0
KCO2 262142Z 17016KT 27/20 A2997 RMK A01 T02680201  RH  067%=      5-min Rain = 0
KCO2 262143Z 17017KT 27/20 A2996 RMK A01 T02690200  RH  066%=      5-min Rain = 0
KCO2 262144Z 17014KT 27/20 A2997 RMK A01 T02690200  RH  066%=      5-min Rain = 0
KCO2 262145Z 17014KT 27/20 A2996 RMK A01 T02690201  RH  066%=      5-min Rain = 0
KCO2 262146Z 17013KT 27/20 A2996 RMK A01 T02690201  RH  066%=      5-min Rain = 0
KCO2 262147Z 17013KT 27/20 A2996 RMK A01 T02690201  RH  066%=      5-min Rain = 0
KCO2 262148Z 18015KT 27/20 A2996 RMK A01 T02690201  RH  066%=      5-min Rain = 0
KCO2 262149Z 18014KT 27/20 A2996 RMK A01 T02690199  RH  065%=      5-min Rain = 0
KCO2 262150Z 17012KT 27/20 A2996 RMK A01 T02690201  RH  066%=      5-min Rain = 0
KCO2 262151Z 17014KT 27/20 A2996 RMK A01 T02680202  RH  067%=      5-min Rain = 0
KCO2 262152Z 17013KT 27/20 A2996 RMK A01 T02680200  RH  066%=      5-min Rain = 0
KCO2 262153Z 17013KT 27/20 A2996 RMK A01 T02680199  RH  066%=      5-min Rain = 0
KCO2 262154Z 17014KT 27/20 A2996 RMK A01 T02680198  RH  066%=      5-min Rain = 0
KCO2 262155Z 17012G17KT 27/20 A2996 RMK A01 T02680200  RH  066%=      5-min Rain = 0
KCO2 262156Z 16014KT 27/20 A2995 RMK A01 T02680200  RH  066%=      5-min Rain = 0
KCO2 262157Z 16014KT 27/20 A2995 RMK A01 T02690199  RH  066%=      5-min Rain = 0
KCO2 262158Z 17013KT 27/20 A2995 RMK A01 T02700200  RH  066%=      5-min Rain = 0
KCO2 262159Z 17016G21KT 27/20 A2995 RMK A01 T02700199  RH  065%=      5-min Rain = 0
KCO2 262200Z 17014KT 27/20 A2995 RMK A01 T02700199  RH  065%=      5-min Rain = 0
KCO2 262201Z 16015KT 27/20 A2995 RMK A01 T02700201  RH  066%=      5-min Rain = 0
KCO2 262202Z 17016KT 27/20 A2995 RMK A01 T02710199  RH  065%=      5-min Rain = 0
KCO2 262203Z 16016KT 27/20 A2995 RMK A01 T02710198  RH  064%=      5-min Rain = 0
KCO2 262204Z 16014KT 27/20 A2995 RMK A01 T02710199  RH  064%=      5-min Rain = 0
KCO2 262205Z 16014KT 27/20 A2995 RMK A01 T02720199  RH  064%=      5-min Rain = 0
KCO2 262206Z 15013KT 27/20 A2995 RMK A01 T02720200  RH  065%=      5-min Rain = 0
KCO2 262207Z 16015KT 27/20 A2995 RMK A01 T02720200  RH  065%=      5-min Rain = 0
KCO2 262208Z 15014KT 27/20 A2995 RMK A01 T02720198  RH  064%=      5-min Rain = 0
KCO2 262209Z 16011KT 27/20 A2995 RMK A01 T02720200  RH  065%=      5-min Rain = 0
KCO2 262210Z 17010KT 27/20 A2995 RMK A01 T02710202  RH  066%=      5-min Rain = 0
KCO2 262211Z 16012KT 27/20 A2995 RMK A01 T02710202  RH  066%=      5-min Rain = 0
KCO2 262212Z 17013KT 27/20 A2995 RMK A01 T02710199  RH  065%=      5-min Rain = 0
KCO2 262213Z 17011KT 27/20 A2995 RMK A01 T02710200  RH  065%=      5-min Rain = 0
KCO2 262214Z 17011KT 27/20 A2995 RMK A01 T02700201  RH  066%=      5-min Rain = 0
KCO2 262215Z 16013G19KT 27/20 A2995 RMK A01 T02700200  RH  065%=      5-min Rain = 0
KCO2 262216Z 17015KT 27/20 A2995 RMK A01 T02690196  RH  064%=      5-min Rain = 0
KCO2 262217Z 17011KT 27/20 A2995 RMK A01 T02690198  RH  065%=      5-min Rain = 0
KCO2 262218Z 17013KT 27/20 A2995 RMK A01 T02700198  RH  065%=      5-min Rain = 0
KCO2 262219Z 17013KT 27/20 A2995 RMK A01 T02700197  RH  065%=      5-min Rain = 0
KCO2 262220Z 17013KT 27/20 A2995 RMK A01 T02700198  RH  065%=      5-min Rain = 0
KCO2 262221Z 17010KT 27/20 A2995 RMK A01 T02700199  RH  065%=      5-min Rain = 0
KCO2 262222Z 17011KT 27/20 A2995 RMK A01 T02690200  RH  066%=      5-min Rain = 0
KCO2 262223Z 17011G16KT 27/20 A2995 RMK A01 T02680201  RH  066%=      5-min Rain = 0
KCO2 262224Z 17015KT 27/20 A2994 RMK A01 T02680198  RH  065%=      5-min Rain = 0
KCO2 262225Z 17013KT 27/20 A2994 RMK A01 T02680195  RH  064%=      5-min Rain = 0
KCO2 262226Z 17014KT 27/20 A2994 RMK A01 T02680195  RH  064%=      5-min Rain = 0
KCO2 262227Z 16012KT 27/19 A2994 RMK A01 T02680193  RH  064%=      5-min Rain = 0
KCO2 262228Z 17012KT 27/19 A2994 RMK A01 T02680194  RH  064%=      5-min Rain = 0
KCO2 262229Z 17009KT 27/20 A2994 RMK A01 T02680196  RH  065%=      5-min Rain = 0
KCO2 262230Z 17009KT 27/20 A2994 RMK A01 T02680199  RH  066%=      5-min Rain = 0
KCO2 262231Z 17010KT 27/20 A2994 RMK A01 T02670198  RH  066%=      5-min Rain = 0
KCO2 262232Z 17011KT 27/20 A2994 RMK A01 T02670196  RH  065%=      5-min Rain = 0
KCO2 262233Z 17011KT 27/20 A2994 RMK A01 T02680197  RH  065%=      5-min Rain = 0
KCO2 262234Z 16010KT 27/20 A2994 RMK A01 T02680197  RH  065%=      5-min Rain = 0
KCO2 262235Z 17010KT 27/20 A2994 RMK A01 T02680198  RH  065%=      5-min Rain = 0
KCO2 262236Z 17014KT 27/20 A2994 RMK A01 T02680196  RH  065%=      5-min Rain = 0
KCO2 262237Z 17013KT 27/19 A2994 RMK A01 T02690193  RH  063%=      5-min Rain = 0
KCO2 262238Z 16014KT 27/19 A2994 RMK A01 T02690193  RH  063%=      5-min Rain = 0
KCO2 262239Z 17011KT 27/19 A2994 RMK A01 T02690194  RH  064%=      5-min Rain = 0
KCO2 262240Z 16009KT 27/20 A2994 RMK A01 T02690197  RH  065%=      5-min Rain = 0
KCO2 262241Z 16008KT 27/20 A2994 RMK A01 T02690198  RH  065%=      5-min Rain = 0
KCO2 262242Z 15009KT 27/20 A2994 RMK A01 T02680200  RH  066%=      5-min Rain = 0
KCO2 262243Z 16010KT 27/20 A2994 RMK A01 T02680200  RH  066%=      5-min Rain = 0
KCO2 262244Z 15008KT 27/20 A2993 RMK A01 T02680201  RH  067%=      5-min Rain = 0
KCO2 262245Z 15009KT 27/20 A2993 RMK A01 T02680202  RH  067%=      5-min Rain = 0
KCO2 262246Z 15008KT 27/20 A2993 RMK A01 T02680201  RH  067%=      5-min Rain = 0
KCO2 262247Z 16008KT 27/20 A2993 RMK A01 T02690202  RH  067%=      5-min Rain = 0
KCO2 262248Z 15009G15KT 27/20 A2993 RMK A01 T02690203  RH  067%=      5-min Rain = 0
KCO2 262249Z 16011KT 27/20 A2993 RMK A01 T02690200  RH  066%=      5-min Rain = 0
KCO2 262250Z 16008KT 27/20 A2993 RMK A01 T02690201  RH  066%=      5-min Rain = 0
KCO2 262251Z 16009KT 27/20 A2993 RMK A01 T02690203  RH  067%=      5-min Rain = 0
KCO2 262252Z 16011KT 27/20 A2993 RMK A01 T02690201  RH  066%=      5-min Rain = 0
KCO2 262253Z 16010KT 27/20 A2993 RMK A01 T02690200  RH  066%=      5-min Rain = 0
KCO2 262254Z 15008KT 27/20 A2993 RMK A01 T02690202  RH  067%=      5-min Rain = 0
KCO2 262255Z 15009KT 27/20 A2993 RMK A01 T02690203  RH  067%=      5-min Rain = 0
KCO2 262256Z 15009KT 27/20 A2992 RMK A01 T02690202  RH  067%=      5-min Rain = 0
KCO2 262257Z 15009KT 27/20 A2992 RMK A01 T02690203  RH  067%=      5-min Rain = 0
KCO2 262258Z 15009KT 27/20 A2992 RMK A01 T02690204  RH  067%=      5-min Rain = 0
KCO2 262259Z 15009KT 27/20 A2992 RMK A01 T02680201  RH  067%=      5-min Rain = 0
KCO2 262300Z 15010KT 27/20 A2992 RMK A01 T02690202  RH  067%=      5-min Rain = 0
KCO2 262301Z 14008KT 27/20 A2992 RMK A01 T02690201  RH  066%=      5-min Rain = 0
KCO2 262302Z 15009KT 27/20 A2992 RMK A01 T02680203  RH  067%=      5-min Rain = 0
KCO2 262303Z 15012KT 27/20 A2992 RMK A01 T02680201  RH  067%=      5-min Rain = 0
KCO2 262304Z 15012KT 27/20 A2992 RMK A01 T02680200  RH  066%=      5-min Rain = 0
KCO2 262305Z 15010KT 27/20 A2992 RMK A01 T02680199  RH  066%=      5-min Rain = 0
KCO2 262306Z 14012KT 27/20 A2992 RMK A01 T02680201  RH  067%=      5-min Rain = 0
KCO2 262307Z 15010KT 27/20 A2992 RMK A01 T02680200  RH  067%=      5-min Rain = 0
KCO2 262308Z 15010G15KT 27/20 A2991 RMK A01 T02670198  RH  066%=      5-min Rain = 0
KCO2 262309Z 15008KT 27/20 A2991 RMK A01 T02670200  RH  067%=      5-min Rain = 0
KCO2 262310Z 15012KT 27/20 A2991 RMK A01 T02670201  RH  067%=      5-min Rain = 0
KCO2 262311Z 15015KT 27/20 A2991 RMK A01 T02670197  RH  065%=      5-min Rain = 0
KCO2 262312Z 15010KT 27/20 A2991 RMK A01 T02670197  RH  065%=      5-min Rain = 0
KCO2 262313Z 15013KT 27/20 A2991 RMK A01 T02670199  RH  066%=      5-min Rain = 0
KCO2 262314Z 15013KT 27/20 A2991 RMK A01 T02660196  RH  065%=      5-min Rain = 0
KCO2 262315Z 15015KT 27/20 A2991 RMK A01 T02660195  RH  065%=      5-min Rain = 0
KCO2 262316Z 15013KT 27/19 A2991 RMK A01 T02670194  RH  064%=      5-min Rain = 0
KCO2 262317Z 15011KT 27/20 A2991 RMK A01 T02670196  RH  065%=      5-min Rain = 0
KCO2 262318Z 15013KT 27/20 A2991 RMK A01 T02670198  RH  066%=      5-min Rain = 0
KCO2 262319Z 15011KT 27/20 A2991 RMK A01 T02670197  RH  065%=      5-min Rain = 0
KCO2 262320Z 15009KT 27/20 A2991 RMK A01 T02670200  RH  067%=      5-min Rain = 0
KCO2 262321Z 15011KT 27/20 A2991 RMK A01 T02660200  RH  067%=      5-min Rain = 0
KCO2 262322Z 15013KT 27/20 A299 RMK A01 T02660199  RH  067%=      5-min Rain = 0
KCO2 262323Z 14012KT 27/20 A299 RMK A01 T02660198  RH  066%=      5-min Rain = 0
KCO2 262324Z 15011KT 27/20 A299 RMK A01 T02660199  RH  067%=      5-min Rain = 0
KCO2 262325Z 15012G17KT 27/20 A299 RMK A01 T02660199  RH  067%=      5-min Rain = 0
KCO2 262326Z 14014KT 27/20 A299 RMK A01 T02660197  RH  066%=      5-min Rain = 0
KCO2 262327Z 14013KT 27/20 A299 RMK A01 T02660198  RH  066%=      5-min Rain = 0
KCO2 262328Z 15011KT 27/20 A299 RMK A01 T02660197  RH  066%=      5-min Rain = 0
KCO2 262329Z 15011KT 27/20 A299 RMK A01 T02660198  RH  067%=      5-min Rain = 0
KCO2 262330Z 15013KT 27/20 A299 RMK A01 T02660199  RH  067%=      5-min Rain = 0
KCO2 262331Z 15015KT 27/20 A299 RMK A01 T02650196  RH  066%=      5-min Rain = 0
KCO2 262332Z 15014KT 27/20 A299 RMK A01 T02660195  RH  065%=      5-min Rain = 0
KCO2 262333Z 15012KT 27/20 A2989 RMK A01 T02660196  RH  066%=      5-min Rain = 0
KCO2 262334Z 15012KT 27/20 A2989 RMK A01 T02660198  RH  066%=      5-min Rain = 0
KCO2 262335Z 15012KT 27/20 A2989 RMK A01 T02660198  RH  066%=      5-min Rain = 0
KCO2 262336Z 14012KT 27/20 A2989 RMK A01 T02660199  RH  067%=      5-min Rain = 0
KCO2 262337Z 15014KT 27/20 A2989 RMK A01 T02650198  RH  067%=      5-min Rain = 0
KCO2 262338Z 15014KT 27/20 A2989 RMK A01 T02650198  RH  066%=      5-min Rain = 0
KCO2 262339Z 14013KT 27/20 A2989 RMK A01 T02650197  RH  066%=      5-min Rain = 0
KCO2 262340Z 15013KT 27/20 A2989 RMK A01 T02660197  RH  066%=      5-min Rain = 0
KCO2 262341Z 14012KT 27/20 A2989 RMK A01 T02650198  RH  066%=      5-min Rain = 0
KCO2 262342Z 14012KT 27/20 A2989 RMK A01 T02650196  RH  066%=      5-min Rain = 0
KCO2 262343Z 14011KT 27/20 A2989 RMK A01 T02650197  RH  066%=      5-min Rain = 0
KCO2 262344Z 15011KT 27/20 A2989 RMK A01 T02650197  RH  066%=      5-min Rain = 0
KCO2 262345Z 15015KT 27/20 A2989 RMK A01 T02650197  RH  066%=      5-min Rain = 0
KCO2 262346Z 15014KT 26/20 A2988 RMK A01 T02640196  RH  066%=      5-min Rain = 0
KCO2 262347Z 15014KT 26/20 A2988 RMK A01 T02640195  RH  066%=      5-min Rain = 0
KCO2 262348Z 15014KT 26/20 A2988 RMK A01 T02640195  RH  066%=      5-min Rain = 0
KCO2 262349Z 15014KT 26/20 A2988 RMK A01 T02640195  RH  066%=      5-min Rain = 0
KCO2 262350Z 15013KT 26/19 A2988 RMK A01 T02640194  RH  065%=      5-min Rain = 0
KCO2 262351Z 15015G20KT 27/19 A2988 RMK A01 T02650194  RH  065%=      5-min Rain = 0
KCO2 262352Z 15015KT 26/19 A2988 RMK A01 T02640193  RH  065%=      5-min Rain = 0
KCO2 262353Z 15017G23KT 27/19 A2988 RMK A01 T02650194  RH  065%=      5-min Rain = 0
KCO2 262354Z 15017KT 27/19 A2988 RMK A01 T02650192  RH  064%=      5-min Rain = 0
KCO2 262355Z 15017KT 27/19 A2988 RMK A01 T02660191  RH  064%=      5-min Rain = 0
KCO2 262356Z 15015KT 27/19 A2989 RMK A01 T02660192  RH  064%=      5-min Rain = 0
KCO2 262357Z 15014KT 27/19 A2989 RMK A01 T02660192  RH  064%=      5-min Rain = 0
KCO2 262358Z 15014KT 27/19 A2989 RMK A01 T02660193  RH  064%=      5-min Rain = 0
KCO2 262359Z 14016KT 27/19 A2989 RMK A01 T02650191  RH  064%=      5-min Rain = 0
KCO2 270000Z 15015KT 27/19 A2988 RMK A01 T02660191  RH  063%=      5-min Rain = 0
KCO2 270001Z 16014KT 27/19 A2988 RMK A01 T02660191  RH  063%=      5-min Rain = 0
KCO2 270002Z 15013KT 27/19 A2988 RMK A01 T02660192  RH  064%=      5-min Rain = 0
KCO2 270003Z 15013G18KT 27/19 A2988 RMK A01 T02660193  RH  064%=      5-min Rain = 0
KCO2 270004Z 15017G22KT 27/19 A2989 RMK A01 T02650192  RH  064%=      5-min Rain = 0
KCO2 270005Z 16016KT 27/19 A2989 RMK A01 T02650189  RH  063%=      5-min Rain = 0
KCO2 270006Z 15014KT 27/19 A2989 RMK A01 T02660190  RH  063%=      5-min Rain = 0
KCO2 270007Z 15013KT 27/19 A2989 RMK A01 T02660190  RH  063%=      5-min Rain = 0
KCO2 270008Z 15013KT 27/19 A2989 RMK A01 T02660191  RH  063%=      5-min Rain = 0
KCO2 270009Z 15013KT 27/19 A2989 RMK A01 T02660190  RH  063%=      5-min Rain = 0
KCO2 270010Z 15013KT 27/19 A2988 RMK A01 T02660191  RH  064%=      5-min Rain = 0
KCO2 270011Z 15013KT 27/19 A2988 RMK A01 T02660191  RH  063%=      5-min Rain = 0
KCO2 270012Z 15010KT 27/19 A2988 RMK A01 T02660191  RH  064%=      5-min Rain = 0
KCO2 270013Z 15012KT 27/19 A2988 RMK A01 T02650191  RH  064%=      5-min Rain = 0
KCO2 270014Z 14014KT 27/19 A2988 RMK A01 T02650191  RH  064%=      5-min Rain = 0
KCO2 270015Z 15013G18KT 27/19 A2988 RMK A01 T02650191  RH  064%=      5-min Rain = 0
KCO2 270016Z 15012KT 27/19 A2988 RMK A01 T02650191  RH  064%=      5-min Rain = 0
KCO2 270017Z 14012KT 26/19 A2988 RMK A01 T02640191  RH  064%=      5-min Rain = 0
KCO2 270018Z 15011KT 26/19 A2988 RMK A01 T02640191  RH  064%=      5-min Rain = 0
KCO2 270019Z 15013KT 26/19 A2988 RMK A01 T02640191  RH  064%=      5-min Rain = 0
KCO2 270020Z 14012KT 26/19 A2988 RMK A01 T02640191  RH  064%=      5-min Rain = 0
KCO2 270021Z 15014KT 26/19 A2988 RMK A01 T02640190  RH  064%=      5-min Rain = 0
KCO2 270022Z 15013KT 26/19 A2988 RMK A01 T02640190  RH  064%=      5-min Rain = 0
KCO2 270023Z 14012KT 26/19 A2988 RMK A01 T02640191  RH  064%=      5-min Rain = 0
KCO2 270024Z 15016KT 26/19 A2987 RMK A01 T02640190  RH  064%=      5-min Rain = 0
KCO2 270025Z 14013KT 26/19 A2987 RMK A01 T02640189  RH  063%=      5-min Rain = 0
KCO2 270026Z 14014G19KT 27/19 A2987 RMK A01 T02650190  RH  064%=      5-min Rain = 0
KCO2 270027Z 14014KT 26/19 A2987 RMK A01 T02640190  RH  063%=      5-min Rain = 0
KCO2 270028Z 14013KT 27/19 A2987 RMK A01 T02650190  RH  064%=      5-min Rain = 0
KCO2 270029Z 14014G20KT 26/19 A2987 RMK A01 T02640191  RH  064%=      5-min Rain = 0
KCO2 270030Z 14014KT 26/19 A2987 RMK A01 T02640190  RH  064%=      5-min Rain = 0
KCO2 270031Z 14012G17KT 26/19 A2987 RMK A01 T02640190  RH  064%=      5-min Rain = 0
KCO2 270032Z 14014KT 26/19 A2987 RMK A01 T02630190  RH  064%=      5-min Rain = 0
KCO2 270033Z 14014KT 26/19 A2987 RMK A01 T02630190  RH  064%=      5-min Rain = 0
KCO2 270034Z 14014KT 26/19 A2987 RMK A01 T02630189  RH  064%=      5-min Rain = 0
KCO2 270035Z 14015KT 26/19 A2987 RMK A01 T02630189  RH  064%=      5-min Rain = 0
KCO2 270036Z 14012KT 26/19 A2987 RMK A01 T02630189  RH  064%=      5-min Rain = 0
KCO2 270037Z 14014KT 26/19 A2986 RMK A01 T02630190  RH  064%=      5-min Rain = 0
KCO2 270038Z 14014KT 26/19 A2986 RMK A01 T02630190  RH  064%=      5-min Rain = 0
KCO2 270039Z 14014KT 26/19 A2987 RMK A01 T02630189  RH  064%=      5-min Rain = 0
KCO2 270040Z 14014KT 26/19 A2987 RMK A01 T02630190  RH  064%=      5-min Rain = 0
KCO2 270041Z 14014KT 26/19 A2987 RMK A01 T02630189  RH  064%=      5-min Rain = 0
KCO2 270042Z 14014KT 26/19 A2986 RMK A01 T02630189  RH  064%=      5-min Rain = 0
KCO2 270043Z 14014KT 26/19 A2986 RMK A01 T02630189  RH  064%=      5-min Rain = 0
KCO2 270044Z 14014KT 26/19 A2986 RMK A01 T02630189  RH  064%=      5-min Rain = 0
KCO2 270045Z 14013KT 26/19 A2986 RMK A01 T02630189  RH  064%=      5-min Rain = 0
KCO2 270046Z 14012KT 26/19 A2986 RMK A01 T02630189  RH  064%=      5-min Rain = 0
KCO2 270047Z 14013KT 26/19 A2986 RMK A01 T02630189  RH  064%=      5-min Rain = 0
KCO2 270048Z 15013KT 26/19 A2986 RMK A01 T02620189  RH  064%=      5-min Rain = 0
KCO2 270049Z 15013KT 26/19 A2986 RMK A01 T02620188  RH  064%=      5-min Rain = 0
KCO2 270050Z 15014G19KT 26/19 A2986 RMK A01 T02620188  RH  064%=      5-min Rain = 0
KCO2 270051Z 15013KT 26/19 A2986 RMK A01 T02620187  RH  063%=      5-min Rain = 0
KCO2 270052Z 14015G20KT 26/19 A2986 RMK A01 T02620187  RH  063%=      5-min Rain = 0
KCO2 270053Z 14016KT 26/19 A2986 RMK A01 T02630187  RH  063%=      5-min Rain = 0
KCO2 270054Z 14012KT 26/19 A2986 RMK A01 T02630187  RH  063%=      5-min Rain = 0
KCO2 270055Z 14012KT 26/19 A2986 RMK A01 T02630187  RH  063%=      5-min Rain = 0
KCO2 270056Z 14014KT 26/19 A2986 RMK A01 T02630187  RH  063%=      5-min Rain = 0
KCO2 270057Z 14014KT 26/19 A2986 RMK A01 T02630187  RH  063%=      5-min Rain = 0
KCO2 270058Z 14012KT 26/19 A2986 RMK A01 T02630187  RH  063%=      5-min Rain = 0
KCO2 270059Z 14014KT 26/19 A2986 RMK A01 T02630187  RH  063%=      5-min Rain = 0
KCO2 270100Z 15015KT 26/19 A2986 RMK A01 T02630186  RH  063%=      5-min Rain = 0
KCO2 270101Z 15013G20KT 26/19 A2987 RMK A01 T02630186  RH  063%=      5-min Rain = 0
KCO2 270102Z 15012KT 26/19 A2987 RMK A01 T02630187  RH  063%=      5-min Rain = 0
KCO2 270103Z 15012G17KT 26/19 A2987 RMK A01 T02630187  RH  063%=      5-min Rain = 0
KCO2 270104Z 15013KT 26/19 A2987 RMK A01 T02630186  RH  063%=      5-min Rain = 0
KCO2 270105Z 16015KT 26/19 A2988 RMK A01 T02630186  RH  062%=      5-min Rain = 0
KCO2 270106Z 16013KT 26/19 A2988 RMK A01 T02640186  RH  062%=      5-min Rain = 0
KCO2 270107Z 16012KT 26/19 A2988 RMK A01 T02640186  RH  062%=      5-min Rain = 0
KCO2 270108Z 15014KT 26/19 A2988 RMK A01 T02630186  RH  062%=      5-min Rain = 0
KCO2 270109Z 15011KT 26/19 A2988 RMK A01 T02640186  RH  062%=      5-min Rain = 0
KCO2 270110Z 15010KT 26/19 A2988 RMK A01 T02640186  RH  062%=      5-min Rain = 0
KCO2 270111Z 15010KT 26/19 A2988 RMK A01 T02640187  RH  062%=      5-min Rain = 0
KCO2 270112Z 16010KT 26/19 A2988 RMK A01 T02640187  RH  062%=      5-min Rain = 0
KCO2 270113Z 16012KT 26/19 A2988 RMK A01 T02640186  RH  062%=      5-min Rain = 0
KCO2 270114Z 16011G17KT 26/19 A2988 RMK A01 T02640186  RH  062%=      5-min Rain = 0
KCO2 270115Z 15012KT 26/19 A2988 RMK A01 T02640186  RH  062%=      5-min Rain = 0
KCO2 270116Z 15012KT 26/19 A2988 RMK A01 T02640186  RH  062%=      5-min Rain = 0
KCO2 270117Z 15011KT 26/19 A2988 RMK A01 T02640186  RH  062%=      5-min Rain = 0
KCO2 270118Z 15014KT 26/19 A2988 RMK A01 T02640187  RH  062%=      5-min Rain = 0
KCO2 270119Z 15013G18KT 26/19 A2988 RMK A01 T02640185  RH  062%=      5-min Rain = 0
KCO2 270120Z 16012KT 26/19 A2988 RMK A01 T02640186  RH  062%=      5-min Rain = 0
KCO2 270121Z 17012KT 27/19 A2988 RMK A01 T02650186  RH  062%=      5-min Rain = 0
KCO2 270122Z 16015KT 26/19 A2989 RMK A01 T02640186  RH  062%=      5-min Rain = 0
KCO2 270123Z 17014KT 27/19 A2989 RMK A01 T02650186  RH  062%=      5-min Rain = 0
KCO2 270124Z 17014G19KT 27/19 A2989 RMK A01 T02650186  RH  062%=      5-min Rain = 0
KCO2 270125Z 17013KT 27/19 A2989 RMK A01 T02650185  RH  062%=      5-min Rain = 0
KCO2 270126Z 17012KT 27/19 A2989 RMK A01 T02650186  RH  062%=      5-min Rain = 0
KCO2 270127Z 17013G18KT 27/19 A2989 RMK A01 T02650186  RH  062%=      5-min Rain = 0
KCO2 270128Z 17012KT 27/19 A2989 RMK A01 T02650187  RH  062%=      5-min Rain = 0
KCO2 270129Z 17013KT 26/19 A2989 RMK A01 T02640186  RH  062%=      5-min Rain = 0
KCO2 270130Z 17012KT 26/19 A2989 RMK A01 T02640186  RH  062%=      5-min Rain = 0
KCO2 270131Z 17010KT 26/19 A2989 RMK A01 T02640187  RH  063%=      5-min Rain = 0
KCO2 270132Z 17011KT 26/19 A2989 RMK A01 T02630187  RH  063%=      5-min Rain = 0
KCO2 270133Z 17011KT 26/19 A2989 RMK A01 T02620187  RH  063%=      5-min Rain = 0
KCO2 270134Z 17009KT 26/19 A2989 RMK A01 T02610187  RH  064%=      5-min Rain = 0
KCO2 270135Z 17010KT 26/19 A2989 RMK A01 T02610187  RH  064%=      5-min Rain = 0
KCO2 270136Z 17009KT 26/19 A2989 RMK A01 T02610187  RH  064%=      5-min Rain = 0
KCO2 270137Z 17010KT 26/19 A2989 RMK A01 T02610187  RH  064%=      5-min Rain = 0
KCO2 270138Z 16010G16KT 26/19 A2989 RMK A01 T02600187  RH  064%=      5-min Rain = 0
KCO2 270139Z 16011KT 26/19 A2989 RMK A01 T02600186  RH  064%=      5-min Rain = 0
KCO2 270140Z 16012KT 26/19 A2989 RMK A01 T02590186  RH  064%=      5-min Rain = 0
KCO2 270141Z 16011KT 26/19 A2989 RMK A01 T02600187  RH  064%=      5-min Rain = 0
KCO2 270142Z 16012G17KT 26/19 A2989 RMK A01 T02590187  RH  064%=      5-min Rain = 0
KCO2 270143Z 16013KT 26/19 A2988 RMK A01 T02590186  RH  064%=      5-min Rain = 0
KCO2 270144Z 16014KT 26/19 A2988 RMK A01 T02600186  RH  064%=      5-min Rain = 0
KCO2 270145Z 16012KT 26/19 A2988 RMK A01 T02600185  RH  063%=      5-min Rain = 0
KCO2 270146Z 16011KT 26/19 A2988 RMK A01 T02610186  RH  064%=      5-min Rain = 0
KCO2 270147Z 16010KT 26/19 A2988 RMK A01 T02600186  RH  064%=      5-min Rain = 0
KCO2 270148Z 16011KT 26/19 A2988 RMK A01 T02590186  RH  064%=      5-min Rain = 0
KCO2 270149Z 16010G16KT 26/19 A2988 RMK A01 T02590187  RH  064%=      5-min Rain = 0
KCO2 270150Z 16011KT 26/19 A2988 RMK A01 T02580186  RH  064%=      5-min Rain = 0
KCO2 270151Z 16010KT 26/19 A2988 RMK A01 T02580186  RH  065%=      5-min Rain = 0
KCO2 270152Z 16011G16KT 26/19 A2988 RMK A01 T02570186  RH  065%=      5-min Rain = 0
KCO2 270153Z 16014KT 26/19 A2988 RMK A01 T02570186  RH  065%=      5-min Rain = 0
KCO2 270154Z 16014KT 26/19 A2988 RMK A01 T02570186  RH  065%=      5-min Rain = 0
KCO2 270155Z 16015G20KT 26/19 A2988 RMK A01 T02580186  RH  064%=      5-min Rain = 0
KCO2 270156Z 16016KT 26/19 A2988 RMK A01 T02580186  RH  064%=      5-min Rain = 0
KCO2 270157Z 16014G19KT 26/19 A2988 RMK A01 T02580186  RH  064%=      5-min Rain = 0
KCO2 270158Z 16011KT 26/19 A2988 RMK A01 T02590186  RH  064%=      5-min Rain = 0
KCO2 270159Z 16015KT 26/19 A2987 RMK A01 T02580186  RH  065%=      5-min Rain = 0
KCO2 270200Z 16013KT 26/19 A2987 RMK A01 T02580186  RH  065%=      5-min Rain = 0
KCO2 270201Z 16013KT 26/19 A2987 RMK A01 T02580187  RH  065%=      5-min Rain = 0
KCO2 270202Z 16016KT 26/19 A2987 RMK A01 T02570187  RH  065%=      5-min Rain = 0
KCO2 270203Z 16013G18KT 26/19 A2987 RMK A01 T02570186  RH  065%=      5-min Rain = 0
KCO2 270204Z 16012KT 26/19 A2987 RMK A01 T02570187  RH  065%=      5-min Rain = 0
KCO2 270205Z 16012KT 26/19 A2987 RMK A01 T02570187  RH  065%=      5-min Rain = 0
KCO2 270206Z 16013KT 26/19 A2987 RMK A01 T02560187  RH  066%=      5-min Rain = 0
KCO2 270207Z 16012KT 26/19 A2987 RMK A01 T02560187  RH  066%=      5-min Rain = 0
KCO2 270208Z 16013KT 26/19 A2987 RMK A01 T02560187  RH  066%=      5-min Rain = 0
KCO2 270209Z 15012KT 26/19 A2987 RMK A01 T02550187  RH  066%=      5-min Rain = 0
KCO2 270210Z 16014KT 26/19 A2987 RMK A01 T02550187  RH  066%=      5-min Rain = 0
KCO2 270211Z 15012G17KT 26/19 A2987 RMK A01 T02550188  RH  066%=      5-min Rain = 0
KCO2 270212Z 16014KT 26/19 A2986 RMK A01 T02550187  RH  066%=      5-min Rain = 0
KCO2 270213Z 15014G19KT 25/19 A2986 RMK A01 T02540187  RH  066%=      5-min Rain = 0
KCO2 270214Z 16014KT 25/19 A2986 RMK A01 T02540188  RH  067%=      5-min Rain = 0
KCO2 270215Z 16014KT 25/19 A2986 RMK A01 T02540187  RH  067%=      5-min Rain = 0
KCO2 270216Z 15013KT 25/19 A2986 RMK A01 T02540188  RH  067%=      5-min Rain = 0
KCO2 270217Z 15015KT 25/19 A2986 RMK A01 T02540188  RH  067%=      5-min Rain = 0
KCO2 270218Z 16015KT 25/19 A2986 RMK A01 T02540188  RH  067%=      5-min Rain = 0
KCO2 270219Z 16015G21KT 25/19 A2986 RMK A01 T02540188  RH  067%=      5-min Rain = 0
KCO2 270220Z 16011KT 25/19 A2986 RMK A01 T02540188  RH  067%=      5-min Rain = 0
KCO2 270221Z 16014KT 25/19 A2986 RMK A01 T02540188  RH  067%=      5-min Rain = 0
KCO2 270222Z 16013KT 25/19 A2986 RMK A01 T02540188  RH  067%=      5-min Rain = 0
KCO2 270223Z 16013KT 25/19 A2986 RMK A01 T02540188  RH  067%=      5-min Rain = 0
KCO2 270224Z 16014KT 25/19 A2986 RMK A01 T02540189  RH  067%=      5-min Rain = 0
KCO2 270225Z 16015KT 25/19 A2986 RMK A01 T02530188  RH  067%=      5-min Rain = 0
KCO2 270226Z 16015KT 25/19 A2986 RMK A01 T02530188  RH  067%=      5-min Rain = 0
KCO2 270227Z 16014KT 25/19 A2987 RMK A01 T02540188  RH  067%=      5-min Rain = 0
KCO2 270228Z 16011KT 25/19 A2987 RMK A01 T02530189  RH  067%=      5-min Rain = 0
KCO2 270229Z 16013KT 25/19 A2987 RMK A01 T02530189  RH  068%=      5-min Rain = 0
KCO2 270230Z 16014KT 25/19 A2987 RMK A01 T02530189  RH  068%=      5-min Rain = 0
KCO2 270231Z 16013KT 25/19 A2987 RMK A01 T02530188  RH  068%=      5-min Rain = 0
KCO2 270232Z 16010KT 25/19 A2987 RMK A01 T02520188  RH  068%=      5-min Rain = 0
KCO2 270233Z 16012KT 25/19 A2987 RMK A01 T02520188  RH  068%=      5-min Rain = 0
KCO2 270234Z 16012KT 25/19 A2987 RMK A01 T02510189  RH  068%=      5-min Rain = 0
KCO2 270235Z 16011G17KT 25/19 A2987 RMK A01 T02510189  RH  068%=      5-min Rain = 0
KCO2 270236Z 16014KT 25/19 A2987 RMK A01 T02510189  RH  068%=      5-min Rain = 0
KCO2 270237Z 16015KT 25/19 A2987 RMK A01 T02500188  RH  068%=      5-min Rain = 0
KCO2 270238Z 16012KT 25/19 A2987 RMK A01 T02510188  RH  068%=      5-min Rain = 0
KCO2 270239Z 16011KT 25/19 A2987 RMK A01 T02510189  RH  068%=      5-min Rain = 0
KCO2 270240Z 16013KT 25/19 A2987 RMK A01 T02510189  RH  068%=      5-min Rain = 0
KCO2 270241Z 16011KT 25/19 A2987 RMK A01 T02510189  RH  068%=      5-min Rain = 0
KCO2 270242Z 16012KT 25/19 A2987 RMK A01 T02500189  RH  069%=      5-min Rain = 0
KCO2 270243Z 16012KT 25/19 A2987 RMK A01 T02500188  RH  069%=      5-min Rain = 0
KCO2 270244Z 16012KT 25/19 A2987 RMK A01 T02500189  RH  069%=      5-min Rain = 0
KCO2 270245Z 16013KT 25/19 A2987 RMK A01 T02490188  RH  069%=      5-min Rain = 0
KCO2 270246Z 16011KT 25/19 A2987 RMK A01 T02500189  RH  069%=      5-min Rain = 0
KCO2 270247Z 16011KT 25/19 A2987 RMK A01 T02490188  RH  069%=      5-min Rain = 0
KCO2 270248Z 16011KT 25/19 A2987 RMK A01 T02490189  RH  069%=      5-min Rain = 0
KCO2 270249Z 16011KT 25/19 A2987 RMK A01 T02480188  RH  069%=      5-min Rain = 0
KCO2 270250Z 16011KT 25/19 A2987 RMK A01 T02480189  RH  069%=      5-min Rain = 0
KCO2 270251Z 16011KT 25/19 A2987 RMK A01 T02480188  RH  070%=      5-min Rain = 0
KCO2 270252Z 16012KT 25/19 A2987 RMK A01 T02470188  RH  070%=      5-min Rain = 0
KCO2 270253Z 15010KT 25/19 A2987 RMK A01 T02480188  RH  070%=      5-min Rain = 0
KCO2 270254Z 16012KT 25/19 A2987 RMK A01 T02480188  RH  070%=      5-min Rain = 0
KCO2 270255Z 16010KT 25/19 A2987 RMK A01 T02480189  RH  070%=      5-min Rain = 0
KCO2 270256Z 15010KT 25/19 A2987 RMK A01 T02470188  RH  070%=      5-min Rain = 0
KCO2 270257Z 15013KT 25/19 A2987 RMK A01 T02460188  RH  070%=      5-min Rain = 0
KCO2 270258Z 16012KT 25/19 A2987 RMK A01 T02460188  RH  070%=      5-min Rain = 0
KCO2 270259Z 15011KT 25/19 A2987 RMK A01 T02460188  RH  070%=      5-min Rain = 0
KCO2 270300Z 16012KT 25/19 A2987 RMK A01 T02460188  RH  070%=      5-min Rain = 0
KCO2 270301Z 16013KT 25/19 A2987 RMK A01 T02460188  RH  070%=      5-min Rain = 0
KCO2 270302Z 16013KT 25/19 A2987 RMK A01 T02460188  RH  070%=      5-min Rain = 0
KCO2 270303Z 15011KT 25/19 A2987 RMK A01 T02470188  RH  070%=      5-min Rain = 0
KCO2 270304Z 15011KT 25/19 A2987 RMK A01 T02460188  RH  070%=      5-min Rain = 0
KCO2 270305Z 16011KT 25/19 A2987 RMK A01 T02450188  RH  071%=      5-min Rain = 0
KCO2 270306Z 16011KT 25/19 A2987 RMK A01 T02450188  RH  071%=      5-min Rain = 0
KCO2 270307Z 16011KT 25/19 A2987 RMK A01 T02450188  RH  071%=      5-min Rain = 0
KCO2 270308Z 16012KT 25/19 A2987 RMK A01 T02450188  RH  071%=      5-min Rain = 0
KCO2 270309Z 16013KT 25/19 A2987 RMK A01 T02450188  RH  071%=      5-min Rain = 0
KCO2 270310Z 16012KT 25/19 A2987 RMK A01 T02450188  RH  070%=      5-min Rain = 0
KCO2 270311Z 16011KT 25/19 A2987 RMK A01 T02450188  RH  070%=      5-min Rain = 0
KCO2 270312Z 16012KT 25/19 A2987 RMK A01 T02450188  RH  070%=      5-min Rain = 0
KCO2 270313Z 16012KT 25/19 A2987 RMK A01 T02450188  RH  071%=      5-min Rain = 0
KCO2 270314Z 16011KT 25/19 A2987 RMK A01 T02450188  RH  071%=      5-min Rain = 0
KCO2 270315Z 16012KT 25/19 A2987 RMK A01 T02450188  RH  071%=      5-min Rain = 0
KCO2 270316Z 16010KT 24/19 A2987 RMK A01 T02440188  RH  071%=      5-min Rain = 0
KCO2 270317Z 16015KT 25/19 A2987 RMK A01 T02450188  RH  071%=      5-min Rain = 0
KCO2 270318Z 16012KT 24/19 A2987 RMK A01 T02440188  RH  071%=      5-min Rain = 0
KCO2 270319Z 16013KT 25/19 A2987 RMK A01 T02450188  RH  070%=      5-min Rain = 0
KCO2 270320Z 16011KT 25/19 A2987 RMK A01 T02450188  RH  070%=      5-min Rain = 0
KCO2 270321Z 16011KT 25/19 A2987 RMK A01 T02450188  RH  070%=      5-min Rain = 0
KCO2 270322Z 16012KT 25/19 A2987 RMK A01 T02450188  RH  071%=      5-min Rain = 0
KCO2 270323Z 16012KT 24/19 A2987 RMK A01 T02440188  RH  071%=      5-min Rain = 0
KCO2 270324Z 16012KT 24/19 A2987 RMK A01 T02440188  RH  071%=      5-min Rain = 0
KCO2 270325Z 16012KT 24/19 A2987 RMK A01 T02440188  RH  071%=      5-min Rain = 0
KCO2 270326Z 16012KT 24/19 A2987 RMK A01 T02440188  RH  071%=      5-min Rain = 0
KCO2 270327Z 16011KT 25/19 A2987 RMK A01 T02450188  RH  071%=      5-min Rain = 0
KCO2 270328Z 16013KT 24/19 A2987 RMK A01 T02440188  RH  071%=      5-min Rain = 0
KCO2 270329Z 15010KT 24/19 A2987 RMK A01 T02440188  RH  071%=      5-min Rain = 0
KCO2 270330Z 16012KT 24/19 A2987 RMK A01 T02440188  RH  071%=      5-min Rain = 0
KCO2 270331Z 16011KT 24/19 A2987 RMK A01 T02430188  RH  071%=      5-min Rain = 0
KCO2 270332Z 16012KT 24/19 A2987 RMK A01 T02430188  RH  071%=      5-min Rain = 0
KCO2 270333Z 16011KT 24/19 A2987 RMK A01 T02430188  RH  071%=      5-min Rain = 0
KCO2 270334Z 16011KT 24/19 A2987 RMK A01 T02430188  RH  071%=      5-min Rain = 0
KCO2 270335Z 16009KT 24/19 A2988 RMK A01 T02430188  RH  071%=      5-min Rain = 0
KCO2 270336Z 16012KT 24/19 A2988 RMK A01 T02430188  RH  071%=      5-min Rain = 0
KCO2 270337Z 16010KT 24/19 A2988 RMK A01 T02430188  RH  071%=      5-min Rain = 0
KCO2 270338Z 16011KT 24/19 A2988 RMK A01 T02430188  RH  072%=      5-min Rain = 0
KCO2 270339Z 16013KT 24/19 A2987 RMK A01 T02420188  RH  072%=      5-min Rain = 0
KCO2 270340Z 15010G15KT 24/19 A2987 RMK A01 T02420188  RH  072%=      5-min Rain = 0
KCO2 270341Z 16009KT 24/19 A2987 RMK A01 T02420188  RH  072%=      5-min Rain = 0
KCO2 270342Z 16012KT 24/19 A2987 RMK A01 T02410188  RH  072%=      5-min Rain = 0
KCO2 270343Z 16012KT 24/19 A2987 RMK A01 T02410188  RH  072%=      5-min Rain = 0
KCO2 270344Z 15010KT 24/19 A2987 RMK A01 T02410188  RH  072%=      5-min Rain = 0
KCO2 270345Z 16010KT 24/19 A2987 RMK A01 T02410188  RH  072%=      5-min Rain = 0
KCO2 270346Z 15014KT 24/19 A2987 RMK A01 T02410188  RH  072%=      5-min Rain = 0
KCO2 270347Z 15011KT 24/19 A2987 RMK A01 T02410188  RH  072%=      5-min Rain = 0
KCO2 270348Z 16010KT 24/19 A2987 RMK A01 T02410188  RH  072%=      5-min Rain = 0
KCO2 270349Z 15011G16KT 24/19 A2987 RMK A01 T02410188  RH  072%=      5-min Rain = 0
KCO2 270350Z 15011KT 24/19 A2987 RMK A01 T02410188  RH  072%=      5-min Rain = 0
KCO2 270351Z 15011KT 24/19 A2987 RMK A01 T02410188  RH  072%=      5-min Rain = 0
KCO2 270352Z 15010KT 24/19 A2987 RMK A01 T02410188  RH  072%=      5-min Rain = 0
KCO2 270353Z 16010KT 24/19 A2987 RMK A01 T02410188  RH  072%=      5-min Rain = 0
KCO2 270354Z 16011KT 24/19 A2987 RMK A01 T02410188  RH  073%=      5-min Rain = 0
KCO2 270355Z 16012KT 24/19 A2987 RMK A01 T02400188  RH  073%=      5-min Rain = 0
KCO2 270356Z 16011KT 24/19 A2987 RMK A01 T02400188  RH  073%=      5-min Rain = 0
KCO2 270357Z 16011KT 24/19 A2987 RMK A01 T02400188  RH  073%=      5-min Rain = 0
KCO2 270358Z 16012KT 24/19 A2987 RMK A01 T02400188  RH  073%=      5-min Rain = 0
KCO2 270359Z 16011KT 24/19 A2987 RMK A01 T02400188  RH  073%=      5-min Rain = 0
KCO2 270400Z 16011KT 24/19 A2987 RMK A01 T02400188  RH  072%=      5-min Rain = 0
KCO2 270401Z 16010KT 24/19 A2987 RMK A01 T02400188  RH  073%=      5-min Rain = 0
KCO2 270402Z 16010KT 24/19 A2987 RMK A01 T02400188  RH  073%=      5-min Rain = 0
KCO2 270403Z 16012KT 24/19 A2987 RMK A01 T02390188  RH  073%=      5-min Rain = 0
KCO2 270404Z 16010KT 24/19 A2987 RMK A01 T02390187  RH  073%=      5-min Rain = 0
KCO2 270405Z 15010KT 24/19 A2987 RMK A01 T02400188  RH  073%=      5-min Rain = 0
KCO2 270406Z 16010KT 24/19 A2987 RMK A01 T02390187  RH  073%=      5-min Rain = 0
KCO2 270407Z 16009KT 24/19 A2987 RMK A01 T02400188  RH  073%=      5-min Rain = 0
KCO2 270408Z 15011KT 24/19 A2987 RMK A01 T02390188  RH  073%=      5-min Rain = 0
KCO2 270409Z 16011KT 24/19 A2987 RMK A01 T02390188  RH  073%=      5-min Rain = 0
KCO2 270410Z 15010KT 24/19 A2987 RMK A01 T02390188  RH  073%=      5-min Rain = 0
KCO2 270411Z 15011KT 24/19 A2987 RMK A01 T02390188  RH  073%=      5-min Rain = 0
KCO2 270412Z 15011KT 24/19 A2987 RMK A01 T02390188  RH  073%=      5-min Rain = 0
KCO2 270413Z 16012KT 24/19 A2987 RMK A01 T02390188  RH  073%=      5-min Rain = 0
KCO2 270414Z 16013KT 24/19 A2987 RMK A01 T02390188  RH  073%=      5-min Rain = 0
KCO2 270415Z 16011KT 24/19 A2987 RMK A01 T02400187  RH  073%=      5-min Rain = 0
KCO2 270416Z 16011KT 24/19 A2987 RMK A01 T02400188  RH  073%=      5-min Rain = 0
KCO2 270417Z 16011KT 24/19 A2987 RMK A01 T02400188  RH  073%=      5-min Rain = 0
KCO2 270418Z 16011KT 24/19 A2987 RMK A01 T02390188  RH  073%=      5-min Rain = 0
KCO2 270419Z 16011KT 24/19 A2988 RMK A01 T02390188  RH  073%=      5-min Rain = 0
KCO2 270420Z 16012KT 24/19 A2988 RMK A01 T02390188  RH  073%=      5-min Rain = 0
KCO2 270421Z 16011KT 24/19 A2988 RMK A01 T02390188  RH  073%=      5-min Rain = 0
KCO2 270422Z 16010KT 24/19 A2988 RMK A01 T02380188  RH  073%=      5-min Rain = 0
KCO2 270423Z 16011KT 24/19 A2988 RMK A01 T02380188  RH  073%=      5-min Rain = 0
KCO2 270424Z 16012KT 24/19 A2988 RMK A01 T02380188  RH  073%=      5-min Rain = 0
KCO2 270425Z 16011KT 24/19 A2988 RMK A01 T02380188  RH  073%=      5-min Rain = 0
KCO2 270426Z 16011KT 24/19 A2988 RMK A01 T02380187  RH  073%=      5-min Rain = 0
KCO2 270427Z 16010KT 24/19 A2988 RMK A01 T02380188  RH  074%=      5-min Rain = 0
KCO2 270428Z 16010KT 24/19 A2988 RMK A01 T02370188  RH  074%=      5-min Rain = 0
KCO2 270429Z 16010KT 24/19 A2988 RMK A01 T02370188  RH  074%=      5-min Rain = 0
KCO2 270430Z 16011KT 24/19 A2988 RMK A01 T02370188  RH  074%=      5-min Rain = 0
KCO2 270431Z 16012G17KT 24/19 A2987 RMK A01 T02370188  RH  074%=      5-min Rain = 0
KCO2 270432Z 15011KT 24/19 A2987 RMK A01 T02370187  RH  074%=      5-min Rain = 0
KCO2 270433Z 16010KT 24/19 A2987 RMK A01 T02370188  RH  074%=      5-min Rain = 0
KCO2 270434Z 15011KT 24/19 A2988 RMK A01 T02370188  RH  074%=      5-min Rain = 0
KCO2 270435Z 16010KT 24/19 A2988 RMK A01 T02370188  RH  074%=      5-min Rain = 0
KCO2 270436Z 16009KT 24/19 A2988 RMK A01 T02360188  RH  074%=      5-min Rain = 0
KCO2 270437Z 15010KT 24/19 A2988 RMK A01 T02360188  RH  075%=      5-min Rain = 0
KCO2 270438Z 16009KT 24/19 A2988 RMK A01 T02360188  RH  075%=      5-min Rain = 0
KCO2 270439Z 16011KT 24/19 A2988 RMK A01 T02350188  RH  075%=      5-min Rain = 0
KCO2 270440Z 16011KT 24/19 A2988 RMK A01 T02350188  RH  075%=      5-min Rain = 0
KCO2 270441Z 16010KT 24/19 A2988 RMK A01 T02360188  RH  075%=      5-min Rain = 0
KCO2 270442Z 15009KT 24/19 A2988 RMK A01 T02350188  RH  075%=      5-min Rain = 0
KCO2 270443Z 16011KT 24/19 A2988 RMK A01 T02350188  RH  075%=      5-min Rain = 0
KCO2 270444Z 16010KT 23/19 A2988 RMK A01 T02340188  RH  075%=      5-min Rain = 0
KCO2 270445Z 16011KT 23/19 A2988 RMK A01 T02340188  RH  075%=      5-min Rain = 0
KCO2 270446Z 16011KT 24/19 A2988 RMK A01 T02350188  RH  075%=      5-min Rain = 0
KCO2 270447Z 16012KT 24/19 A2988 RMK A01 T02350188  RH  075%=      5-min Rain = 0
KCO2 270448Z 16010KT 24/19 A2988 RMK A01 T02360188  RH  075%=      5-min Rain = 0
KCO2 270449Z 16012KT 24/19 A2988 RMK A01 T02360189  RH  075%=      5-min Rain = 0
KCO2 270450Z 15011KT 24/19 A2988 RMK A01 T02360189  RH  075%=      5-min Rain = 0
KCO2 270451Z 15011KT 24/19 A2988 RMK A01 T02360189  RH  075%=      5-min Rain = 0
KCO2 270452Z 16010KT 24/19 A2988 RMK A01 T02360188  RH  075%=      5-min Rain = 0
KCO2 270453Z 16009KT 24/19 A2988 RMK A01 T02350188  RH  075%=      5-min Rain = 0
KCO2 270454Z 15009KT 24/19 A2988 RMK A01 T02350188  RH  075%=      5-min Rain = 0
KCO2 270455Z 16011KT 23/19 A2988 RMK A01 T02340189  RH  076%=      5-min Rain = 0
KCO2 270456Z 15011KT 23/19 A2988 RMK A01 T02340189  RH  076%=      5-min Rain = 0
KCO2 270457Z 15011KT 23/19 A2988 RMK A01 T02340189  RH  076%=      5-min Rain = 0
KCO2 270458Z 15010KT 23/19 A2988 RMK A01 T02330188  RH  076%=      5-min Rain = 0
KCO2 270459Z 16009KT 23/19 A2988 RMK A01 T02330188  RH  076%=      5-min Rain = 0

Page generated in 0.1321 seconds.